<?xml version="1.0" encoding="UTF-8" standalone="yes"?>
<gpx
 xmlns="http://www.topografix.com/GPX/1/1"
 creator="OziExplorer Version 3956f - http://www.oziexplorer.com"
 version="1.1"
 xmlns:xsi="http://www.w3.org/2001/XMLSchema-instance"
 xsi:schemaLocation="http://www.topografix.com/GPX/1/1 http://www.topografix.com/GPX/1/1/gpx.xsd">
<metadata>
 <time>2018-05-29T10:49:20Z</time>
 <bounds minlat="31.764422" minlon="35.012970" maxlat="31.796590" maxlon="35.115390"/>
</metadata>
<trk>
 <name>kisalon-raziel_Izm, 37 km.</name>
 <desc>kisalon-raziel_Izm, 37 km.</desc>
<trkseg>
<trkpt lat="31.7777200" lon="35.0164300">
<ele>277.179993</ele>
<time>2018-05-29T13:49:20.906Z</time>
</trkpt>
<trkpt lat="31.7776400" lon="35.0160600">
<ele>272.109985</ele>
<time>2018-05-29T13:49:20.906Z</time>
</trkpt>
<trkpt lat="31.7776800" lon="35.0160700">
<ele>274.000000</ele>
<time>2018-05-29T13:49:20.906Z</time>
</trkpt>
<trkpt lat="31.7775100" lon="35.0160400">
<ele>273.309998</ele>
<time>2018-05-29T13:49:20.906Z</time>
</trkpt>
<trkpt lat="31.7773800" lon="35.0159400">
<ele>273.100006</ele>
<time>2018-05-29T13:49:20.906Z</time>
</trkpt>
<trkpt lat="31.7770600" lon="35.0155600">
<ele>273.000000</ele>
<time>2018-05-29T13:49:20.906Z</time>
</trkpt>
<trkpt lat="31.7768400" lon="35.0147700">
<ele>272.000000</ele>
<time>2018-05-29T13:49:20.906Z</time>
</trkpt>
<trkpt lat="31.7764700" lon="35.0145300">
<ele>274.510010</ele>
<time>2018-05-29T13:49:20.906Z</time>
</trkpt>
<trkpt lat="31.7761100" lon="35.0144100">
<ele>276.600006</ele>
<time>2018-05-29T13:49:20.906Z</time>
</trkpt>
<trkpt lat="31.7759400" lon="35.0143300">
<ele>276.709991</ele>
<time>2018-05-29T13:49:20.906Z</time>
</trkpt>
<trkpt lat="31.7757800" lon="35.0142100">
<ele>276.920013</ele>
<time>2018-05-29T13:49:20.906Z</time>
</trkpt>
<trkpt lat="31.7756900" lon="35.0140900">
<ele>277.000000</ele>
<time>2018-05-29T13:49:20.906Z</time>
</trkpt>
<trkpt lat="31.7751300" lon="35.0136400">
<ele>277.000000</ele>
<time>2018-05-29T13:49:20.906Z</time>
</trkpt>
<trkpt lat="31.7749000" lon="35.0136100">
<ele>270.000000</ele>
<time>2018-05-29T13:49:20.906Z</time>
</trkpt>
<trkpt lat="31.7749300" lon="35.0137900">
<ele>270.000000</ele>
<time>2018-05-29T13:49:20.906Z</time>
</trkpt>
<trkpt lat="31.7748200" lon="35.0131500">
<ele>265.000000</ele>
<time>2018-05-29T13:49:20.906Z</time>
</trkpt>
<trkpt lat="31.7747100" lon="35.0132800">
<ele>265.449982</ele>
<time>2018-05-29T13:49:20.906Z</time>
</trkpt>
<trkpt lat="31.7745700" lon="35.0136400">
<ele>265.360016</ele>
<time>2018-05-29T13:49:20.906Z</time>
</trkpt>
<trkpt lat="31.7745200" lon="35.0137100">
<ele>265.369995</ele>
<time>2018-05-29T13:49:20.906Z</time>
</trkpt>
<trkpt lat="31.7744300" lon="35.0137700">
<ele>265.369995</ele>
<time>2018-05-29T13:49:20.906Z</time>
</trkpt>
<trkpt lat="31.7743600" lon="35.0137700">
<ele>265.649994</ele>
<time>2018-05-29T13:49:20.906Z</time>
</trkpt>
<trkpt lat="31.7743000" lon="35.0137400">
<ele>265.649994</ele>
<time>2018-05-29T13:49:20.906Z</time>
</trkpt>
<trkpt lat="31.7742400" lon="35.0136800">
<ele>265.700012</ele>
<time>2018-05-29T13:49:20.906Z</time>
</trkpt>
<trkpt lat="31.7739100" lon="35.0132900">
<ele>266.459991</ele>
<time>2018-05-29T13:49:20.906Z</time>
</trkpt>
<trkpt lat="31.7736200" lon="35.0130400">
<ele>267.580017</ele>
<time>2018-05-29T13:49:20.906Z</time>
</trkpt>
<trkpt lat="31.7735200" lon="35.0130000">
<ele>268.929993</ele>
<time>2018-05-29T13:49:20.906Z</time>
</trkpt>
<trkpt lat="31.7733300" lon="35.0130000">
<ele>269.809998</ele>
<time>2018-05-29T13:49:20.906Z</time>
</trkpt>
<trkpt lat="31.7731900" lon="35.0129700">
<ele>272.519989</ele>
<time>2018-05-29T13:49:20.906Z</time>
</trkpt>
<trkpt lat="31.7729100" lon="35.0132200">
<ele>275.820007</ele>
<time>2018-05-29T13:49:20.906Z</time>
</trkpt>
<trkpt lat="31.7725400" lon="35.0137200">
<ele>282.309998</ele>
<time>2018-05-29T13:49:20.906Z</time>
</trkpt>
<trkpt lat="31.7724100" lon="35.0139900">
<ele>285.010010</ele>
<time>2018-05-29T13:49:20.906Z</time>
</trkpt>
<trkpt lat="31.7722700" lon="35.0141000">
<ele>285.769989</ele>
<time>2018-05-29T13:49:20.906Z</time>
</trkpt>
<trkpt lat="31.7721800" lon="35.0142600">
<ele>286.550018</ele>
<time>2018-05-29T13:49:20.906Z</time>
</trkpt>
<trkpt lat="31.7718700" lon="35.0147100">
<ele>291.419983</ele>
<time>2018-05-29T13:49:20.906Z</time>
</trkpt>
<trkpt lat="31.7715600" lon="35.0152400">
<ele>298.000000</ele>
<time>2018-05-29T13:49:20.906Z</time>
</trkpt>
<trkpt lat="31.7712800" lon="35.0153500">
<ele>298.110016</ele>
<time>2018-05-29T13:49:20.906Z</time>
</trkpt>
<trkpt lat="31.7711700" lon="35.0157300">
<ele>298.190002</ele>
<time>2018-05-29T13:49:20.907Z</time>
</trkpt>
<trkpt lat="31.7710500" lon="35.0157900">
<ele>297.910004</ele>
<time>2018-05-29T13:49:20.907Z</time>
</trkpt>
<trkpt lat="31.7709600" lon="35.0159000">
<ele>297.880005</ele>
<time>2018-05-29T13:49:20.907Z</time>
</trkpt>
<trkpt lat="31.7709300" lon="35.0164400">
<ele>298.209991</ele>
<time>2018-05-29T13:49:20.907Z</time>
</trkpt>
<trkpt lat="31.7708500" lon="35.0168600">
<ele>298.880005</ele>
<time>2018-05-29T13:49:20.907Z</time>
</trkpt>
<trkpt lat="31.7708500" lon="35.0170300">
<ele>299.000000</ele>
<time>2018-05-29T13:49:20.907Z</time>
</trkpt>
<trkpt lat="31.7706300" lon="35.0168800">
<ele>299.670013</ele>
<time>2018-05-29T13:49:20.907Z</time>
</trkpt>
<trkpt lat="31.7705000" lon="35.0163500">
<ele>299.649994</ele>
<time>2018-05-29T13:49:20.907Z</time>
</trkpt>
<trkpt lat="31.7701000" lon="35.0160400">
<ele>299.000000</ele>
<time>2018-05-29T13:49:20.907Z</time>
</trkpt>
<trkpt lat="31.7699600" lon="35.0161000">
<ele>293.119995</ele>
<time>2018-05-29T13:49:20.907Z</time>
</trkpt>
<trkpt lat="31.7698100" lon="35.0163200">
<ele>288.779999</ele>
<time>2018-05-29T13:49:20.907Z</time>
</trkpt>
<trkpt lat="31.7697200" lon="35.0165500">
<ele>285.000000</ele>
<time>2018-05-29T13:49:20.907Z</time>
</trkpt>
<trkpt lat="31.7697700" lon="35.0168700">
<ele>291.559998</ele>
<time>2018-05-29T13:49:20.907Z</time>
</trkpt>
<trkpt lat="31.7698300" lon="35.0171100">
<ele>295.040009</ele>
<time>2018-05-29T13:49:20.907Z</time>
</trkpt>
<trkpt lat="31.7698000" lon="35.0173100">
<ele>296.500000</ele>
<time>2018-05-29T13:49:20.907Z</time>
</trkpt>
<trkpt lat="31.7698200" lon="35.0175500">
<ele>300.000000</ele>
<time>2018-05-29T13:49:20.907Z</time>
</trkpt>
<trkpt lat="31.7699400" lon="35.0176900">
<ele>303.750000</ele>
<time>2018-05-29T13:49:20.907Z</time>
</trkpt>
<trkpt lat="31.7699400" lon="35.0178300">
<ele>306.929993</ele>
<time>2018-05-29T13:49:20.907Z</time>
</trkpt>
<trkpt lat="31.7697600" lon="35.0180800">
<ele>310.750000</ele>
<time>2018-05-29T13:49:20.907Z</time>
</trkpt>
<trkpt lat="31.7696300" lon="35.0183200">
<ele>315.940002</ele>
<time>2018-05-29T13:49:20.907Z</time>
</trkpt>
<trkpt lat="31.7697500" lon="35.0188500">
<ele>321.389984</ele>
<time>2018-05-29T13:49:20.907Z</time>
</trkpt>
<trkpt lat="31.7697700" lon="35.0191600">
<ele>324.259979</ele>
<time>2018-05-29T13:49:20.907Z</time>
</trkpt>
<trkpt lat="31.7695000" lon="35.0195300">
<ele>325.950012</ele>
<time>2018-05-29T13:49:20.907Z</time>
</trkpt>
<trkpt lat="31.7691600" lon="35.0199200">
<ele>330.679993</ele>
<time>2018-05-29T13:49:20.907Z</time>
</trkpt>
<trkpt lat="31.7690400" lon="35.0200100">
<ele>331.350006</ele>
<time>2018-05-29T13:49:20.907Z</time>
</trkpt>
<trkpt lat="31.7688700" lon="35.0201700">
<ele>332.690033</ele>
<time>2018-05-29T13:49:20.907Z</time>
</trkpt>
<trkpt lat="31.7687200" lon="35.0204100">
<ele>335.359985</ele>
<time>2018-05-29T13:49:20.907Z</time>
</trkpt>
<trkpt lat="31.7686600" lon="35.0212900">
<ele>346.019989</ele>
<time>2018-05-29T13:49:20.907Z</time>
</trkpt>
<trkpt lat="31.7685600" lon="35.0219600">
<ele>354.359985</ele>
<time>2018-05-29T13:49:20.907Z</time>
</trkpt>
<trkpt lat="31.7686300" lon="35.0223100">
<ele>360.420013</ele>
<time>2018-05-29T13:49:20.907Z</time>
</trkpt>
<trkpt lat="31.7688600" lon="35.0227100">
<ele>366.500000</ele>
<time>2018-05-29T13:49:20.907Z</time>
</trkpt>
<trkpt lat="31.7692200" lon="35.0230800">
<ele>373.350006</ele>
<time>2018-05-29T13:49:20.907Z</time>
</trkpt>
<trkpt lat="31.7696000" lon="35.0236400">
<ele>381.779999</ele>
<time>2018-05-29T13:49:20.907Z</time>
</trkpt>
<trkpt lat="31.7699300" lon="35.0245100">
<ele>393.690002</ele>
<time>2018-05-29T13:49:20.907Z</time>
</trkpt>
<trkpt lat="31.7701100" lon="35.0247800">
<ele>397.309998</ele>
<time>2018-05-29T13:49:20.907Z</time>
</trkpt>
<trkpt lat="31.7702600" lon="35.0248400">
<ele>398.600006</ele>
<time>2018-05-29T13:49:20.907Z</time>
</trkpt>
<trkpt lat="31.7705200" lon="35.0246700">
<ele>402.420013</ele>
<time>2018-05-29T13:49:20.907Z</time>
</trkpt>
<trkpt lat="31.7708500" lon="35.0244100">
<ele>406.000000</ele>
<time>2018-05-29T13:49:20.907Z</time>
</trkpt>
<trkpt lat="31.7717400" lon="35.0243900">
<ele>400.140015</ele>
<time>2018-05-29T13:49:20.907Z</time>
</trkpt>
<trkpt lat="31.7723800" lon="35.0241600">
<ele>395.000000</ele>
<time>2018-05-29T13:49:20.907Z</time>
</trkpt>
<trkpt lat="31.7725900" lon="35.0241800">
<ele>408.800018</ele>
<time>2018-05-29T13:49:20.907Z</time>
</trkpt>
<trkpt lat="31.7729900" lon="35.0242800">
<ele>421.000000</ele>
<time>2018-05-29T13:49:20.907Z</time>
</trkpt>
<trkpt lat="31.7728600" lon="35.0243400">
<ele>422.529999</ele>
<time>2018-05-29T13:49:20.907Z</time>
</trkpt>
<trkpt lat="31.7725700" lon="35.0246600">
<ele>425.020020</ele>
<time>2018-05-29T13:49:20.907Z</time>
</trkpt>
<trkpt lat="31.7724300" lon="35.0248700">
<ele>426.559998</ele>
<time>2018-05-29T13:49:20.907Z</time>
</trkpt>
<trkpt lat="31.7723200" lon="35.0249900">
<ele>426.880005</ele>
<time>2018-05-29T13:49:20.907Z</time>
</trkpt>
<trkpt lat="31.7720900" lon="35.0251800">
<ele>428.360016</ele>
<time>2018-05-29T13:49:20.907Z</time>
</trkpt>
<trkpt lat="31.7719700" lon="35.0253400">
<ele>429.709991</ele>
<time>2018-05-29T13:49:20.907Z</time>
</trkpt>
<trkpt lat="31.7716300" lon="35.0257100">
<ele>433.540009</ele>
<time>2018-05-29T13:49:20.907Z</time>
</trkpt>
<trkpt lat="31.7715200" lon="35.0258100">
<ele>434.440002</ele>
<time>2018-05-29T13:49:20.907Z</time>
</trkpt>
<trkpt lat="31.7711600" lon="35.0260200">
<ele>436.490021</ele>
<time>2018-05-29T13:49:20.907Z</time>
</trkpt>
<trkpt lat="31.7711100" lon="35.0260900">
<ele>436.490021</ele>
<time>2018-05-29T13:49:20.907Z</time>
</trkpt>
<trkpt lat="31.7710900" lon="35.0261600">
<ele>436.739990</ele>
<time>2018-05-29T13:49:20.907Z</time>
</trkpt>
<trkpt lat="31.7711100" lon="35.0265000">
<ele>438.009979</ele>
<time>2018-05-29T13:49:20.907Z</time>
</trkpt>
<trkpt lat="31.7710600" lon="35.0270000">
<ele>441.639984</ele>
<time>2018-05-29T13:49:20.907Z</time>
</trkpt>
<trkpt lat="31.7710600" lon="35.0272300">
<ele>443.139984</ele>
<time>2018-05-29T13:49:20.907Z</time>
</trkpt>
<trkpt lat="31.7711100" lon="35.0272700">
<ele>443.679993</ele>
<time>2018-05-29T13:49:20.907Z</time>
</trkpt>
<trkpt lat="31.7713200" lon="35.0273200">
<ele>445.740021</ele>
<time>2018-05-29T13:49:20.907Z</time>
</trkpt>
<trkpt lat="31.7714000" lon="35.0273600">
<ele>447.089996</ele>
<time>2018-05-29T13:49:20.907Z</time>
</trkpt>
<trkpt lat="31.7714900" lon="35.0274400">
<ele>448.589996</ele>
<time>2018-05-29T13:49:20.907Z</time>
</trkpt>
<trkpt lat="31.7715100" lon="35.0275000">
<ele>449.000031</ele>
<time>2018-05-29T13:49:20.907Z</time>
</trkpt>
<trkpt lat="31.7715100" lon="35.0276200">
<ele>449.579987</ele>
<time>2018-05-29T13:49:20.907Z</time>
</trkpt>
<trkpt lat="31.7713100" lon="35.0281000">
<ele>453.490021</ele>
<time>2018-05-29T13:49:20.907Z</time>
</trkpt>
<trkpt lat="31.7712200" lon="35.0283900">
<ele>454.220001</ele>
<time>2018-05-29T13:49:20.907Z</time>
</trkpt>
<trkpt lat="31.7710200" lon="35.0287300">
<ele>456.000000</ele>
<time>2018-05-29T13:49:20.907Z</time>
</trkpt>
<trkpt lat="31.7710300" lon="35.0288100">
<ele>456.000000</ele>
<time>2018-05-29T13:49:20.907Z</time>
</trkpt>
<trkpt lat="31.7711900" lon="35.0290800">
<ele>456.000000</ele>
<time>2018-05-29T13:49:20.907Z</time>
</trkpt>
<trkpt lat="31.7712000" lon="35.0292700">
<ele>456.000000</ele>
<time>2018-05-29T13:49:20.907Z</time>
</trkpt>
<trkpt lat="31.7711900" lon="35.0296700">
<ele>456.000000</ele>
<time>2018-05-29T13:49:20.907Z</time>
</trkpt>
<trkpt lat="31.7712100" lon="35.0297400">
<ele>456.000000</ele>
<time>2018-05-29T13:49:20.908Z</time>
</trkpt>
<trkpt lat="31.7714500" lon="35.0299600">
<ele>456.160004</ele>
<time>2018-05-29T13:49:20.908Z</time>
</trkpt>
<trkpt lat="31.7715000" lon="35.0300700">
<ele>456.309998</ele>
<time>2018-05-29T13:49:20.908Z</time>
</trkpt>
<trkpt lat="31.7715000" lon="35.0301900">
<ele>456.309998</ele>
<time>2018-05-29T13:49:20.908Z</time>
</trkpt>
<trkpt lat="31.7714600" lon="35.0303600">
<ele>456.589996</ele>
<time>2018-05-29T13:49:20.908Z</time>
</trkpt>
<trkpt lat="31.7714600" lon="35.0304700">
<ele>456.589996</ele>
<time>2018-05-29T13:49:20.908Z</time>
</trkpt>
<trkpt lat="31.7715300" lon="35.0306700">
<ele>457.000000</ele>
<time>2018-05-29T13:49:20.908Z</time>
</trkpt>
<trkpt lat="31.7715300" lon="35.0307300">
<ele>457.000000</ele>
<time>2018-05-29T13:49:20.908Z</time>
</trkpt>
<trkpt lat="31.7714400" lon="35.0310100">
<ele>461.000000</ele>
<time>2018-05-29T13:49:20.908Z</time>
</trkpt>
<trkpt lat="31.7712800" lon="35.0313800">
<ele>461.000000</ele>
<time>2018-05-29T13:49:20.908Z</time>
</trkpt>
<trkpt lat="31.7711700" lon="35.0315500">
<ele>461.000000</ele>
<time>2018-05-29T13:49:20.908Z</time>
</trkpt>
<trkpt lat="31.7710500" lon="35.0317100">
<ele>463.920013</ele>
<time>2018-05-29T13:49:20.908Z</time>
</trkpt>
<trkpt lat="31.7708700" lon="35.0318600">
<ele>466.920013</ele>
<time>2018-05-29T13:49:20.908Z</time>
</trkpt>
<trkpt lat="31.7706400" lon="35.0319900">
<ele>468.940002</ele>
<time>2018-05-29T13:49:20.908Z</time>
</trkpt>
<trkpt lat="31.7703200" lon="35.0322500">
<ele>472.769989</ele>
<time>2018-05-29T13:49:20.908Z</time>
</trkpt>
<trkpt lat="31.7701300" lon="35.0324500">
<ele>475.690002</ele>
<time>2018-05-29T13:49:20.908Z</time>
</trkpt>
<trkpt lat="31.7700600" lon="35.0326000">
<ele>476.940002</ele>
<time>2018-05-29T13:49:20.908Z</time>
</trkpt>
<trkpt lat="31.7700500" lon="35.0328100">
<ele>478.329987</ele>
<time>2018-05-29T13:49:20.908Z</time>
</trkpt>
<trkpt lat="31.7700800" lon="35.0330600">
<ele>480.570007</ele>
<time>2018-05-29T13:49:20.908Z</time>
</trkpt>
<trkpt lat="31.7702000" lon="35.0335500">
<ele>484.239990</ele>
<time>2018-05-29T13:49:20.908Z</time>
</trkpt>
<trkpt lat="31.7703500" lon="35.0340700">
<ele>487.779999</ele>
<time>2018-05-29T13:49:20.908Z</time>
</trkpt>
<trkpt lat="31.7704200" lon="35.0344900">
<ele>491.959991</ele>
<time>2018-05-29T13:49:20.908Z</time>
</trkpt>
<trkpt lat="31.7704200" lon="35.0347400">
<ele>494.010010</ele>
<time>2018-05-29T13:49:20.908Z</time>
</trkpt>
<trkpt lat="31.7704000" lon="35.0348700">
<ele>495.020020</ele>
<time>2018-05-29T13:49:20.908Z</time>
</trkpt>
<trkpt lat="31.7703400" lon="35.0350200">
<ele>496.709991</ele>
<time>2018-05-29T13:49:20.908Z</time>
</trkpt>
<trkpt lat="31.7702100" lon="35.0354600">
<ele>501.740021</ele>
<time>2018-05-29T13:49:20.908Z</time>
</trkpt>
<trkpt lat="31.7701800" lon="35.0356700">
<ele>503.610016</ele>
<time>2018-05-29T13:49:20.908Z</time>
</trkpt>
<trkpt lat="31.7701700" lon="35.0360500">
<ele>506.140015</ele>
<time>2018-05-29T13:49:20.908Z</time>
</trkpt>
<trkpt lat="31.7702000" lon="35.0367300">
<ele>512.000000</ele>
<time>2018-05-29T13:49:20.908Z</time>
</trkpt>
<trkpt lat="31.7701800" lon="35.0369000">
<ele>512.940002</ele>
<time>2018-05-29T13:49:20.908Z</time>
</trkpt>
<trkpt lat="31.7701300" lon="35.0370100">
<ele>513.600037</ele>
<time>2018-05-29T13:49:20.908Z</time>
</trkpt>
<trkpt lat="31.7700000" lon="35.0371600">
<ele>514.940002</ele>
<time>2018-05-29T13:49:20.908Z</time>
</trkpt>
<trkpt lat="31.7697300" lon="35.0373700">
<ele>517.799988</ele>
<time>2018-05-29T13:49:20.908Z</time>
</trkpt>
<trkpt lat="31.7696300" lon="35.0374900">
<ele>519.299988</ele>
<time>2018-05-29T13:49:20.908Z</time>
</trkpt>
<trkpt lat="31.7695600" lon="35.0376400">
<ele>520.039978</ele>
<time>2018-05-29T13:49:20.908Z</time>
</trkpt>
<trkpt lat="31.7695300" lon="35.0377600">
<ele>521.429993</ele>
<time>2018-05-29T13:49:20.908Z</time>
</trkpt>
<trkpt lat="31.7695300" lon="35.0380600">
<ele>523.440002</ele>
<time>2018-05-29T13:49:20.908Z</time>
</trkpt>
<trkpt lat="31.7695600" lon="35.0382700">
<ele>526.039978</ele>
<time>2018-05-29T13:49:20.908Z</time>
</trkpt>
<trkpt lat="31.7696800" lon="35.0387100">
<ele>529.839966</ele>
<time>2018-05-29T13:49:20.908Z</time>
</trkpt>
<trkpt lat="31.7697700" lon="35.0392100">
<ele>534.839966</ele>
<time>2018-05-29T13:49:20.908Z</time>
</trkpt>
<trkpt lat="31.7698700" lon="35.0395300">
<ele>536.960022</ele>
<time>2018-05-29T13:49:20.908Z</time>
</trkpt>
<trkpt lat="31.7700200" lon="35.0399200">
<ele>540.340027</ele>
<time>2018-05-29T13:49:20.908Z</time>
</trkpt>
<trkpt lat="31.7701000" lon="35.0402800">
<ele>542.830017</ele>
<time>2018-05-29T13:49:20.908Z</time>
</trkpt>
<trkpt lat="31.7701000" lon="35.0405000">
<ele>544.000000</ele>
<time>2018-05-29T13:49:20.908Z</time>
</trkpt>
<trkpt lat="31.7700700" lon="35.0407000">
<ele>544.000000</ele>
<time>2018-05-29T13:49:20.908Z</time>
</trkpt>
<trkpt lat="31.7699500" lon="35.0410400">
<ele>531.000000</ele>
<time>2018-05-29T13:49:20.908Z</time>
</trkpt>
<trkpt lat="31.7698200" lon="35.0413600">
<ele>534.429993</ele>
<time>2018-05-29T13:49:20.908Z</time>
</trkpt>
<trkpt lat="31.7697900" lon="35.0414800">
<ele>535.730042</ele>
<time>2018-05-29T13:49:20.908Z</time>
</trkpt>
<trkpt lat="31.7697900" lon="35.0416100">
<ele>537.119995</ele>
<time>2018-05-29T13:49:20.908Z</time>
</trkpt>
<trkpt lat="31.7699300" lon="35.0423500">
<ele>543.770020</ele>
<time>2018-05-29T13:49:20.908Z</time>
</trkpt>
<trkpt lat="31.7700950" lon="35.0429600">
<ele>550.479980</ele>
<time>2018-05-29T13:49:20.908Z</time>
</trkpt>
<trkpt lat="31.7702600" lon="35.0435700">
<ele>555.840027</ele>
<time>2018-05-29T13:49:20.908Z</time>
</trkpt>
<trkpt lat="31.7703600" lon="35.0440600">
<ele>561.250000</ele>
<time>2018-05-29T13:49:20.908Z</time>
</trkpt>
<trkpt lat="31.7703700" lon="35.0443600">
<ele>563.940002</ele>
<time>2018-05-29T13:49:20.908Z</time>
</trkpt>
<trkpt lat="31.7703650" lon="35.0449950">
<ele>570.340027</ele>
<time>2018-05-29T13:49:20.908Z</time>
</trkpt>
<trkpt lat="31.7703600" lon="35.0456300">
<ele>576.559998</ele>
<time>2018-05-29T13:49:20.908Z</time>
</trkpt>
<trkpt lat="31.7703200" lon="35.0459300">
<ele>578.929993</ele>
<time>2018-05-29T13:49:20.908Z</time>
</trkpt>
<trkpt lat="31.7701300" lon="35.0464300">
<ele>584.589966</ele>
<time>2018-05-29T13:49:20.908Z</time>
</trkpt>
<trkpt lat="31.7700600" lon="35.0466700">
<ele>586.789978</ele>
<time>2018-05-29T13:49:20.908Z</time>
</trkpt>
<trkpt lat="31.7699500" lon="35.0474200">
<ele>594.989990</ele>
<time>2018-05-29T13:49:20.908Z</time>
</trkpt>
<trkpt lat="31.7699200" lon="35.0478000">
<ele>597.809998</ele>
<time>2018-05-29T13:49:20.908Z</time>
</trkpt>
<trkpt lat="31.7698700" lon="35.0479600">
<ele>599.799988</ele>
<time>2018-05-29T13:49:20.908Z</time>
</trkpt>
<trkpt lat="31.7698100" lon="35.0480600">
<ele>600.280029</ele>
<time>2018-05-29T13:49:20.908Z</time>
</trkpt>
<trkpt lat="31.7698300" lon="35.0482300">
<ele>602.000000</ele>
<time>2018-05-29T13:49:20.908Z</time>
</trkpt>
<trkpt lat="31.7699600" lon="35.0483000">
<ele>601.630005</ele>
<time>2018-05-29T13:49:20.908Z</time>
</trkpt>
<trkpt lat="31.7700800" lon="35.0482700">
<ele>601.230042</ele>
<time>2018-05-29T13:49:20.908Z</time>
</trkpt>
<trkpt lat="31.7704800" lon="35.0473400">
<ele>601.000000</ele>
<time>2018-05-29T13:49:20.909Z</time>
</trkpt>
<trkpt lat="31.7707200" lon="35.0471300">
<ele>607.919983</ele>
<time>2018-05-29T13:49:20.909Z</time>
</trkpt>
<trkpt lat="31.7716926" lon="35.0465805">
<ele>627.789978</ele>
<time>2018-05-29T13:49:20.909Z</time>
</trkpt>
<trkpt lat="31.7724770" lon="35.0441343">
<ele>634.000000</ele>
<time>2018-05-29T13:49:20.909Z</time>
</trkpt>
<trkpt lat="31.7716950" lon="35.0472200">
<ele>637.369995</ele>
<time>2018-05-29T13:49:20.909Z</time>
</trkpt>
<trkpt lat="31.7715500" lon="35.0478700">
<ele>637.179993</ele>
<time>2018-05-29T13:49:20.909Z</time>
</trkpt>
<trkpt lat="31.7714000" lon="35.0485700">
<ele>637.200012</ele>
<time>2018-05-29T13:49:20.909Z</time>
</trkpt>
<trkpt lat="31.7712900" lon="35.0493200">
<ele>641.179993</ele>
<time>2018-05-29T13:49:20.909Z</time>
</trkpt>
<trkpt lat="31.7711800" lon="35.0500700">
<ele>643.479980</ele>
<time>2018-05-29T13:49:20.909Z</time>
</trkpt>
<trkpt lat="31.7710700" lon="35.0505600">
<ele>644.170044</ele>
<time>2018-05-29T13:49:20.909Z</time>
</trkpt>
<trkpt lat="31.7709400" lon="35.0509900">
<ele>644.440002</ele>
<time>2018-05-29T13:49:20.909Z</time>
</trkpt>
<trkpt lat="31.7705867" lon="35.0517867">
<ele>645.810059</ele>
<time>2018-05-29T13:49:20.909Z</time>
</trkpt>
<trkpt lat="31.7702333" lon="35.0525833">
<ele>649.429993</ele>
<time>2018-05-29T13:49:20.909Z</time>
</trkpt>
<trkpt lat="31.7698800" lon="35.0533800">
<ele>652.280029</ele>
<time>2018-05-29T13:49:20.909Z</time>
</trkpt>
<trkpt lat="31.7696750" lon="35.0538900">
<ele>655.440002</ele>
<time>2018-05-29T13:49:20.909Z</time>
</trkpt>
<trkpt lat="31.7694700" lon="35.0544000">
<ele>656.760010</ele>
<time>2018-05-29T13:49:20.909Z</time>
</trkpt>
<trkpt lat="31.7694100" lon="35.0547300">
<ele>656.900024</ele>
<time>2018-05-29T13:49:20.909Z</time>
</trkpt>
<trkpt lat="31.7693750" lon="35.0554250">
<ele>659.089966</ele>
<time>2018-05-29T13:49:20.909Z</time>
</trkpt>
<trkpt lat="31.7693400" lon="35.0561200">
<ele>661.429993</ele>
<time>2018-05-29T13:49:20.909Z</time>
</trkpt>
<trkpt lat="31.7692100" lon="35.0568900">
<ele>665.230042</ele>
<time>2018-05-29T13:49:20.909Z</time>
</trkpt>
<trkpt lat="31.7692600" lon="35.0571300">
<ele>666.179993</ele>
<time>2018-05-29T13:49:20.909Z</time>
</trkpt>
<trkpt lat="31.7695900" lon="35.0577500">
<ele>666.660034</ele>
<time>2018-05-29T13:49:20.909Z</time>
</trkpt>
<trkpt lat="31.7697600" lon="35.0582700">
<ele>666.619995</ele>
<time>2018-05-29T13:49:20.909Z</time>
</trkpt>
<trkpt lat="31.7699400" lon="35.0590400">
<ele>666.469971</ele>
<time>2018-05-29T13:49:20.909Z</time>
</trkpt>
<trkpt lat="31.7700100" lon="35.0592300">
<ele>666.400024</ele>
<time>2018-05-29T13:49:20.909Z</time>
</trkpt>
<trkpt lat="31.7705600" lon="35.0598800">
<ele>664.180054</ele>
<time>2018-05-29T13:49:20.909Z</time>
</trkpt>
<trkpt lat="31.7710500" lon="35.0605800">
<ele>661.409973</ele>
<time>2018-05-29T13:49:20.909Z</time>
</trkpt>
<trkpt lat="31.7711600" lon="35.0608800">
<ele>659.930054</ele>
<time>2018-05-29T13:49:20.909Z</time>
</trkpt>
<trkpt lat="31.7711600" lon="35.0613100">
<ele>659.269958</ele>
<time>2018-05-29T13:49:20.909Z</time>
</trkpt>
<trkpt lat="31.7710900" lon="35.0619600">
<ele>657.419983</ele>
<time>2018-05-29T13:49:20.909Z</time>
</trkpt>
<trkpt lat="31.7710700" lon="35.0625200">
<ele>655.470032</ele>
<time>2018-05-29T13:49:20.909Z</time>
</trkpt>
<trkpt lat="31.7711600" lon="35.0630500">
<ele>654.849976</ele>
<time>2018-05-29T13:49:20.909Z</time>
</trkpt>
<trkpt lat="31.7713150" lon="35.0635850">
<ele>654.590027</ele>
<time>2018-05-29T13:49:20.909Z</time>
</trkpt>
<trkpt lat="31.7714700" lon="35.0641200">
<ele>653.619995</ele>
<time>2018-05-29T13:49:20.909Z</time>
</trkpt>
<trkpt lat="31.7716400" lon="35.0646200">
<ele>650.670044</ele>
<time>2018-05-29T13:49:20.909Z</time>
</trkpt>
<trkpt lat="31.7718800" lon="35.0647300">
<ele>650.000000</ele>
<time>2018-05-29T13:49:20.909Z</time>
</trkpt>
<trkpt lat="31.7717400" lon="35.0655200">
<ele>653.380005</ele>
<time>2018-05-29T13:49:20.909Z</time>
</trkpt>
<trkpt lat="31.7716400" lon="35.0664100">
<ele>664.820007</ele>
<time>2018-05-29T13:49:20.909Z</time>
</trkpt>
<trkpt lat="31.7714400" lon="35.0671100">
<ele>670.409973</ele>
<time>2018-05-29T13:49:20.909Z</time>
</trkpt>
<trkpt lat="31.7716800" lon="35.0680800">
<ele>675.000000</ele>
<time>2018-05-29T13:49:20.909Z</time>
</trkpt>
<trkpt lat="31.7716600" lon="35.0683100">
<ele>675.099976</ele>
<time>2018-05-29T13:49:20.909Z</time>
</trkpt>
<trkpt lat="31.7717550" lon="35.0690250">
<ele>677.250000</ele>
<time>2018-05-29T13:49:20.909Z</time>
</trkpt>
<trkpt lat="31.7718500" lon="35.0697400">
<ele>686.500000</ele>
<time>2018-05-29T13:49:20.909Z</time>
</trkpt>
<trkpt lat="31.7715700" lon="35.0705067">
<ele>689.770020</ele>
<time>2018-05-29T13:49:20.909Z</time>
</trkpt>
<trkpt lat="31.7712900" lon="35.0712733">
<ele>692.809998</ele>
<time>2018-05-29T13:49:20.909Z</time>
</trkpt>
<trkpt lat="31.7710100" lon="35.0720400">
<ele>696.830017</ele>
<time>2018-05-29T13:49:20.909Z</time>
</trkpt>
<trkpt lat="31.7707850" lon="35.0726050">
<ele>698.640015</ele>
<time>2018-05-29T13:49:20.909Z</time>
</trkpt>
<trkpt lat="31.7705600" lon="35.0731700">
<ele>702.529968</ele>
<time>2018-05-29T13:49:20.909Z</time>
</trkpt>
<trkpt lat="31.7702900" lon="35.0739000">
<ele>707.959961</ele>
<time>2018-05-29T13:49:20.909Z</time>
</trkpt>
<trkpt lat="31.7703800" lon="35.0742700">
<ele>709.630005</ele>
<time>2018-05-29T13:49:20.909Z</time>
</trkpt>
<trkpt lat="31.7706100" lon="35.0747900">
<ele>710.149963</ele>
<time>2018-05-29T13:49:20.909Z</time>
</trkpt>
<trkpt lat="31.7711600" lon="35.0755000">
<ele>710.059998</ele>
<time>2018-05-29T13:49:20.909Z</time>
</trkpt>
<trkpt lat="31.7712200" lon="35.0758400">
<ele>709.640015</ele>
<time>2018-05-29T13:49:20.909Z</time>
</trkpt>
<trkpt lat="31.7711600" lon="35.0761700">
<ele>708.210022</ele>
<time>2018-05-29T13:49:20.909Z</time>
</trkpt>
<trkpt lat="31.7709500" lon="35.0763500">
<ele>709.100037</ele>
<time>2018-05-29T13:49:20.909Z</time>
</trkpt>
<trkpt lat="31.7707300" lon="35.0764500">
<ele>711.219971</ele>
<time>2018-05-29T13:49:20.909Z</time>
</trkpt>
<trkpt lat="31.7704400" lon="35.0766500">
<ele>711.890015</ele>
<time>2018-05-29T13:49:20.909Z</time>
</trkpt>
<trkpt lat="31.7699700" lon="35.0767800">
<ele>713.570007</ele>
<time>2018-05-29T13:49:20.909Z</time>
</trkpt>
<trkpt lat="31.7694400" lon="35.0769500">
<ele>713.559998</ele>
<time>2018-05-29T13:49:20.909Z</time>
</trkpt>
<trkpt lat="31.7694000" lon="35.0771600">
<ele>713.559998</ele>
<time>2018-05-29T13:49:20.909Z</time>
</trkpt>
<trkpt lat="31.7694100" lon="35.0771900">
<ele>713.559998</ele>
<time>2018-05-29T13:49:20.909Z</time>
</trkpt>
<trkpt lat="31.7694300" lon="35.0772100">
<ele>713.559998</ele>
<time>2018-05-29T13:49:20.909Z</time>
</trkpt>
<trkpt lat="31.7695300" lon="35.0774000">
<ele>713.519958</ele>
<time>2018-05-29T13:49:20.909Z</time>
</trkpt>
<trkpt lat="31.7697200" lon="35.0776500">
<ele>713.469971</ele>
<time>2018-05-29T13:49:20.909Z</time>
</trkpt>
<trkpt lat="31.7703050" lon="35.0779650">
<ele>712.320007</ele>
<time>2018-05-29T13:49:20.909Z</time>
</trkpt>
<trkpt lat="31.7708900" lon="35.0782800">
<ele>709.380005</ele>
<time>2018-05-29T13:49:20.909Z</time>
</trkpt>
<trkpt lat="31.7709800" lon="35.0785200">
<ele>708.809998</ele>
<time>2018-05-29T13:49:20.909Z</time>
</trkpt>
<trkpt lat="31.7709300" lon="35.0787800">
<ele>707.939941</ele>
<time>2018-05-29T13:49:20.909Z</time>
</trkpt>
<trkpt lat="31.7706900" lon="35.0791000">
<ele>706.910034</ele>
<time>2018-05-29T13:49:20.909Z</time>
</trkpt>
<trkpt lat="31.7705400" lon="35.0793800">
<ele>707.010010</ele>
<time>2018-05-29T13:49:20.909Z</time>
</trkpt>
<trkpt lat="31.7704800" lon="35.0800300">
<ele>710.799988</ele>
<time>2018-05-29T13:49:20.910Z</time>
</trkpt>
<trkpt lat="31.7702000" lon="35.0804600">
<ele>715.000000</ele>
<time>2018-05-29T13:49:20.910Z</time>
</trkpt>
<trkpt lat="31.7701100" lon="35.0804400">
<ele>715.000000</ele>
<time>2018-05-29T13:49:20.910Z</time>
</trkpt>
<trkpt lat="31.7697600" lon="35.0804300">
<ele>710.869995</ele>
<time>2018-05-29T13:49:20.910Z</time>
</trkpt>
<trkpt lat="31.7695800" lon="35.0803600">
<ele>710.000000</ele>
<time>2018-05-29T13:49:20.910Z</time>
</trkpt>
<trkpt lat="31.7692800" lon="35.0804200">
<ele>714.119995</ele>
<time>2018-05-29T13:49:20.910Z</time>
</trkpt>
<trkpt lat="31.7691100" lon="35.0806100">
<ele>717.050049</ele>
<time>2018-05-29T13:49:20.910Z</time>
</trkpt>
<trkpt lat="31.7690100" lon="35.0807600">
<ele>717.699951</ele>
<time>2018-05-29T13:49:20.910Z</time>
</trkpt>
<trkpt lat="31.7689700" lon="35.0808900">
<ele>718.540039</ele>
<time>2018-05-29T13:49:20.910Z</time>
</trkpt>
<trkpt lat="31.7688900" lon="35.0813000">
<ele>721.369995</ele>
<time>2018-05-29T13:49:20.910Z</time>
</trkpt>
<trkpt lat="31.7689400" lon="35.0816700">
<ele>723.200012</ele>
<time>2018-05-29T13:49:20.910Z</time>
</trkpt>
<trkpt lat="31.7689100" lon="35.0819700">
<ele>725.610046</ele>
<time>2018-05-29T13:49:20.910Z</time>
</trkpt>
<trkpt lat="31.7689400" lon="35.0823900">
<ele>728.859985</ele>
<time>2018-05-29T13:49:20.910Z</time>
</trkpt>
<trkpt lat="31.7689600" lon="35.0824900">
<ele>730.089966</ele>
<time>2018-05-29T13:49:20.910Z</time>
</trkpt>
<trkpt lat="31.7691900" lon="35.0828400">
<ele>738.150024</ele>
<time>2018-05-29T13:49:20.910Z</time>
</trkpt>
<trkpt lat="31.7693000" lon="35.0829100">
<ele>740.619995</ele>
<time>2018-05-29T13:49:20.910Z</time>
</trkpt>
<trkpt lat="31.7696300" lon="35.0832200">
<ele>745.489990</ele>
<time>2018-05-29T13:49:20.910Z</time>
</trkpt>
<trkpt lat="31.7699200" lon="35.0834600">
<ele>747.579956</ele>
<time>2018-05-29T13:49:20.910Z</time>
</trkpt>
<trkpt lat="31.7700900" lon="35.0836200">
<ele>749.799988</ele>
<time>2018-05-29T13:49:20.910Z</time>
</trkpt>
<trkpt lat="31.7702200" lon="35.0837700">
<ele>754.030029</ele>
<time>2018-05-29T13:49:20.910Z</time>
</trkpt>
<trkpt lat="31.7703300" lon="35.0838600">
<ele>755.529968</ele>
<time>2018-05-29T13:49:20.910Z</time>
</trkpt>
<trkpt lat="31.7704800" lon="35.0839400">
<ele>756.080017</ele>
<time>2018-05-29T13:49:20.910Z</time>
</trkpt>
<trkpt lat="31.7709100" lon="35.0841100">
<ele>757.000000</ele>
<time>2018-05-29T13:49:20.910Z</time>
</trkpt>
<trkpt lat="31.7709900" lon="35.0838500">
<ele>757.000000</ele>
<time>2018-05-29T13:49:20.910Z</time>
</trkpt>
<trkpt lat="31.7709100" lon="35.0841100">
<ele>757.000000</ele>
<time>2018-05-29T13:49:20.910Z</time>
</trkpt>
<trkpt lat="31.7711600" lon="35.0841600">
<ele>752.289978</ele>
<time>2018-05-29T13:49:20.910Z</time>
</trkpt>
<trkpt lat="31.7713200" lon="35.0841600">
<ele>747.319946</ele>
<time>2018-05-29T13:49:20.910Z</time>
</trkpt>
<trkpt lat="31.7714500" lon="35.0841800">
<ele>747.319946</ele>
<time>2018-05-29T13:49:20.910Z</time>
</trkpt>
<trkpt lat="31.7716300" lon="35.0842500">
<ele>742.000000</ele>
<time>2018-05-29T13:49:20.910Z</time>
</trkpt>
<trkpt lat="31.7715800" lon="35.0846900">
<ele>741.020020</ele>
<time>2018-05-29T13:49:20.910Z</time>
</trkpt>
<trkpt lat="31.7719100" lon="35.0853100">
<ele>741.000000</ele>
<time>2018-05-29T13:49:20.910Z</time>
</trkpt>
<trkpt lat="31.7717500" lon="35.0854800">
<ele>740.910034</ele>
<time>2018-05-29T13:49:20.910Z</time>
</trkpt>
<trkpt lat="31.7715400" lon="35.0857700">
<ele>741.729980</ele>
<time>2018-05-29T13:49:20.910Z</time>
</trkpt>
<trkpt lat="31.7714500" lon="35.0860800">
<ele>743.890015</ele>
<time>2018-05-29T13:49:20.910Z</time>
</trkpt>
<trkpt lat="31.7714700" lon="35.0864100">
<ele>746.890015</ele>
<time>2018-05-29T13:49:20.910Z</time>
</trkpt>
<trkpt lat="31.7717200" lon="35.0871800">
<ele>752.500000</ele>
<time>2018-05-29T13:49:20.910Z</time>
</trkpt>
<trkpt lat="31.7718600" lon="35.0874800">
<ele>755.000000</ele>
<time>2018-05-29T13:49:20.910Z</time>
</trkpt>
<trkpt lat="31.7721000" lon="35.0876700">
<ele>755.000000</ele>
<time>2018-05-29T13:49:20.910Z</time>
</trkpt>
<trkpt lat="31.7724600" lon="35.0879100">
<ele>758.369995</ele>
<time>2018-05-29T13:49:20.910Z</time>
</trkpt>
<trkpt lat="31.7728300" lon="35.0880800">
<ele>761.669983</ele>
<time>2018-05-29T13:49:20.910Z</time>
</trkpt>
<trkpt lat="31.7733400" lon="35.0882100">
<ele>765.709961</ele>
<time>2018-05-29T13:49:21.243Z</time>
</trkpt>
<trkpt lat="31.7741100" lon="35.0883100">
<ele>773.950012</ele>
<time>2018-05-29T13:49:21.243Z</time>
</trkpt>
<trkpt lat="31.7744200" lon="35.0884800">
<ele>777.000000</ele>
<time>2018-05-29T13:49:21.243Z</time>
</trkpt>
<trkpt lat="31.7746200" lon="35.0887000">
<ele>777.580017</ele>
<time>2018-05-29T13:49:21.243Z</time>
</trkpt>
<trkpt lat="31.7748500" lon="35.0892600">
<ele>781.540039</ele>
<time>2018-05-29T13:49:21.243Z</time>
</trkpt>
<trkpt lat="31.7750200" lon="35.0899200">
<ele>784.080017</ele>
<time>2018-05-29T13:49:21.243Z</time>
</trkpt>
<trkpt lat="31.7750400" lon="35.0901600">
<ele>785.000000</ele>
<time>2018-05-29T13:49:21.243Z</time>
</trkpt>
<trkpt lat="31.7753300" lon="35.0900000">
<ele>781.000000</ele>
<time>2018-05-29T13:49:21.243Z</time>
</trkpt>
<trkpt lat="31.7756100" lon="35.0900800">
<ele>777.580017</ele>
<time>2018-05-29T13:49:21.243Z</time>
</trkpt>
<trkpt lat="31.7758200" lon="35.0902000">
<ele>776.229980</ele>
<time>2018-05-29T13:49:21.243Z</time>
</trkpt>
<trkpt lat="31.7760700" lon="35.0904700">
<ele>773.000061</ele>
<time>2018-05-29T13:49:21.243Z</time>
</trkpt>
<trkpt lat="31.7760900" lon="35.0906300">
<ele>773.340027</ele>
<time>2018-05-29T13:49:21.243Z</time>
</trkpt>
<trkpt lat="31.7760700" lon="35.0905200">
<ele>773.000061</ele>
<time>2018-05-29T13:49:21.243Z</time>
</trkpt>
<trkpt lat="31.7761100" lon="35.0908200">
<ele>773.849976</ele>
<time>2018-05-29T13:49:21.243Z</time>
</trkpt>
<trkpt lat="31.7761100" lon="35.0910700">
<ele>775.000000</ele>
<time>2018-05-29T13:49:21.243Z</time>
</trkpt>
<trkpt lat="31.7758100" lon="35.0914700">
<ele>775.000000</ele>
<time>2018-05-29T13:49:21.243Z</time>
</trkpt>
<trkpt lat="31.7752700" lon="35.0918100">
<ele>778.000000</ele>
<time>2018-05-29T13:49:21.243Z</time>
</trkpt>
<trkpt lat="31.7748700" lon="35.0922100">
<ele>778.000000</ele>
<time>2018-05-29T13:49:21.243Z</time>
</trkpt>
<trkpt lat="31.7744100" lon="35.0924300">
<ele>778.000000</ele>
<time>2018-05-29T13:49:21.243Z</time>
</trkpt>
<trkpt lat="31.7741800" lon="35.0924900">
<ele>778.000000</ele>
<time>2018-05-29T13:49:21.243Z</time>
</trkpt>
<trkpt lat="31.7737400" lon="35.0923600">
<ele>777.000000</ele>
<time>2018-05-29T13:49:21.243Z</time>
</trkpt>
<trkpt lat="31.7733300" lon="35.0922700">
<ele>777.000000</ele>
<time>2018-05-29T13:49:21.243Z</time>
</trkpt>
<trkpt lat="31.7724900" lon="35.0922100">
<ele>777.000000</ele>
<time>2018-05-29T13:49:21.243Z</time>
</trkpt>
<trkpt lat="31.7720300" lon="35.0923900">
<ele>737.000000</ele>
<time>2018-05-29T13:49:21.243Z</time>
</trkpt>
<trkpt lat="31.7716200" lon="35.0925000">
<ele>737.000000</ele>
<time>2018-05-29T13:49:21.243Z</time>
</trkpt>
<trkpt lat="31.7711500" lon="35.0924700">
<ele>737.000000</ele>
<time>2018-05-29T13:49:21.243Z</time>
</trkpt>
<trkpt lat="31.7710400" lon="35.0926100">
<ele>735.419983</ele>
<time>2018-05-29T13:49:21.243Z</time>
</trkpt>
<trkpt lat="31.7710200" lon="35.0928300">
<ele>733.190002</ele>
<time>2018-05-29T13:49:21.243Z</time>
</trkpt>
<trkpt lat="31.7708000" lon="35.0929500">
<ele>729.279968</ele>
<time>2018-05-29T13:49:21.243Z</time>
</trkpt>
<trkpt lat="31.7707100" lon="35.0932600">
<ele>726.510010</ele>
<time>2018-05-29T13:49:21.243Z</time>
</trkpt>
<trkpt lat="31.7705700" lon="35.0935300">
<ele>725.399963</ele>
<time>2018-05-29T13:49:21.243Z</time>
</trkpt>
<trkpt lat="31.7704100" lon="35.0936300">
<ele>723.519958</ele>
<time>2018-05-29T13:49:21.243Z</time>
</trkpt>
<trkpt lat="31.7702300" lon="35.0936100">
<ele>721.520020</ele>
<time>2018-05-29T13:49:21.243Z</time>
</trkpt>
<trkpt lat="31.7700800" lon="35.0935500">
<ele>719.090027</ele>
<time>2018-05-29T13:49:21.243Z</time>
</trkpt>
<trkpt lat="31.7700800" lon="35.0931300">
<ele>716.229980</ele>
<time>2018-05-29T13:49:21.243Z</time>
</trkpt>
<trkpt lat="31.7699800" lon="35.0930500">
<ele>715.239990</ele>
<time>2018-05-29T13:49:21.243Z</time>
</trkpt>
<trkpt lat="31.7698600" lon="35.0930600">
<ele>714.260010</ele>
<time>2018-05-29T13:49:21.243Z</time>
</trkpt>
<trkpt lat="31.7696600" lon="35.0932600">
<ele>710.959961</ele>
<time>2018-05-29T13:49:21.243Z</time>
</trkpt>
<trkpt lat="31.7695600" lon="35.0932000">
<ele>709.479980</ele>
<time>2018-05-29T13:49:21.243Z</time>
</trkpt>
<trkpt lat="31.7696300" lon="35.0927800">
<ele>705.960022</ele>
<time>2018-05-29T13:49:21.243Z</time>
</trkpt>
<trkpt lat="31.7694300" lon="35.0925700">
<ele>703.999939</ele>
<time>2018-05-29T13:49:21.243Z</time>
</trkpt>
<trkpt lat="31.7693100" lon="35.0926800">
<ele>703.179993</ele>
<time>2018-05-29T13:49:21.243Z</time>
</trkpt>
<trkpt lat="31.7691000" lon="35.0930700">
<ele>701.119995</ele>
<time>2018-05-29T13:49:21.243Z</time>
</trkpt>
<trkpt lat="31.7687200" lon="35.0939000">
<ele>696.910034</ele>
<time>2018-05-29T13:49:21.243Z</time>
</trkpt>
<trkpt lat="31.7685250" lon="35.0944250">
<ele>692.090027</ele>
<time>2018-05-29T13:49:21.243Z</time>
</trkpt>
<trkpt lat="31.7683300" lon="35.0949500">
<ele>684.330017</ele>
<time>2018-05-29T13:49:21.243Z</time>
</trkpt>
<trkpt lat="31.7683400" lon="35.0951700">
<ele>682.099976</ele>
<time>2018-05-29T13:49:21.243Z</time>
</trkpt>
<trkpt lat="31.7684100" lon="35.0954600">
<ele>678.080017</ele>
<time>2018-05-29T13:49:21.243Z</time>
</trkpt>
<trkpt lat="31.7683100" lon="35.0958400">
<ele>673.619995</ele>
<time>2018-05-29T13:49:21.243Z</time>
</trkpt>
<trkpt lat="31.7683500" lon="35.0960800">
<ele>671.000000</ele>
<time>2018-05-29T13:49:21.243Z</time>
</trkpt>
<trkpt lat="31.7685000" lon="35.0962800">
<ele>672.950012</ele>
<time>2018-05-29T13:49:21.243Z</time>
</trkpt>
<trkpt lat="31.7689400" lon="35.0964300">
<ele>675.339966</ele>
<time>2018-05-29T13:49:21.244Z</time>
</trkpt>
<trkpt lat="31.7695400" lon="35.0964200">
<ele>679.179993</ele>
<time>2018-05-29T13:49:21.244Z</time>
</trkpt>
<trkpt lat="31.7699400" lon="35.0963600">
<ele>681.200012</ele>
<time>2018-05-29T13:49:21.244Z</time>
</trkpt>
<trkpt lat="31.7703700" lon="35.0961600">
<ele>685.720032</ele>
<time>2018-05-29T13:49:21.244Z</time>
</trkpt>
<trkpt lat="31.7707600" lon="35.0958700">
<ele>689.420044</ele>
<time>2018-05-29T13:49:21.244Z</time>
</trkpt>
<trkpt lat="31.7710300" lon="35.0955200">
<ele>692.520020</ele>
<time>2018-05-29T13:49:21.244Z</time>
</trkpt>
<trkpt lat="31.7711500" lon="35.0954200">
<ele>693.000000</ele>
<time>2018-05-29T13:49:21.244Z</time>
</trkpt>
<trkpt lat="31.7711000" lon="35.0958500">
<ele>685.770020</ele>
<time>2018-05-29T13:49:21.244Z</time>
</trkpt>
<trkpt lat="31.7705800" lon="35.0965100">
<ele>678.059998</ele>
<time>2018-05-29T13:49:21.244Z</time>
</trkpt>
<trkpt lat="31.7704600" lon="35.0968100">
<ele>672.870056</ele>
<time>2018-05-29T13:49:21.244Z</time>
</trkpt>
<trkpt lat="31.7702400" lon="35.0970700">
<ele>668.219971</ele>
<time>2018-05-29T13:49:21.244Z</time>
</trkpt>
<trkpt lat="31.7699600" lon="35.0973500">
<ele>662.429993</ele>
<time>2018-05-29T13:49:21.244Z</time>
</trkpt>
<trkpt lat="31.7694900" lon="35.0974100">
<ele>655.739990</ele>
<time>2018-05-29T13:49:21.244Z</time>
</trkpt>
<trkpt lat="31.7690700" lon="35.0976700">
<ele>646.280029</ele>
<time>2018-05-29T13:49:21.244Z</time>
</trkpt>
<trkpt lat="31.7692300" lon="35.0977300">
<ele>642.030029</ele>
<time>2018-05-29T13:49:21.244Z</time>
</trkpt>
<trkpt lat="31.7700000" lon="35.0979300">
<ele>632.270020</ele>
<time>2018-05-29T13:49:21.244Z</time>
</trkpt>
<trkpt lat="31.7694500" lon="35.0981200">
<ele>624.190002</ele>
<time>2018-05-29T13:49:21.244Z</time>
</trkpt>
<trkpt lat="31.7688500" lon="35.0982900">
<ele>616.700012</ele>
<time>2018-05-29T13:49:21.244Z</time>
</trkpt>
<trkpt lat="31.7681900" lon="35.0984400">
<ele>612.320007</ele>
<time>2018-05-29T13:49:21.244Z</time>
</trkpt>
<trkpt lat="31.7676100" lon="35.0986400">
<ele>605.789978</ele>
<time>2018-05-29T13:49:21.244Z</time>
</trkpt>
<trkpt lat="31.7667900" lon="35.0990200">
<ele>595.739990</ele>
<time>2018-05-29T13:49:21.244Z</time>
</trkpt>
<trkpt lat="31.7661300" lon="35.0990600">
<ele>578.369995</ele>
<time>2018-05-29T13:49:21.244Z</time>
</trkpt>
<trkpt lat="31.7655300" lon="35.0991700">
<ele>564.469971</ele>
<time>2018-05-29T13:49:21.244Z</time>
</trkpt>
<trkpt lat="31.7647300" lon="35.0990000">
<ele>546.149963</ele>
<time>2018-05-29T13:49:21.244Z</time>
</trkpt>
<trkpt lat="31.7644700" lon="35.0986700">
<ele>536.000000</ele>
<time>2018-05-29T13:49:21.244Z</time>
</trkpt>
<trkpt lat="31.7644700" lon="35.0984400">
<ele>536.109985</ele>
<time>2018-05-29T13:49:21.244Z</time>
</trkpt>
<trkpt lat="31.7644700" lon="35.0986700">
<ele>536.000000</ele>
<time>2018-05-29T13:49:21.244Z</time>
</trkpt>
<trkpt lat="31.7645600" lon="35.0990200">
<ele>540.650024</ele>
<time>2018-05-29T13:49:21.244Z</time>
</trkpt>
<trkpt lat="31.7646400" lon="35.0991100">
<ele>542.080017</ele>
<time>2018-05-29T13:49:21.244Z</time>
</trkpt>
<trkpt lat="31.7649900" lon="35.0993300">
<ele>546.600037</ele>
<time>2018-05-29T13:49:21.244Z</time>
</trkpt>
<trkpt lat="31.7657300" lon="35.0995800">
<ele>556.570007</ele>
<time>2018-05-29T13:49:21.244Z</time>
</trkpt>
<trkpt lat="31.7661100" lon="35.0997800">
<ele>563.119995</ele>
<time>2018-05-29T13:49:21.244Z</time>
</trkpt>
<trkpt lat="31.7663300" lon="35.0998200">
<ele>565.799988</ele>
<time>2018-05-29T13:49:21.244Z</time>
</trkpt>
<trkpt lat="31.7669000" lon="35.0998300">
<ele>572.030029</ele>
<time>2018-05-29T13:49:21.244Z</time>
</trkpt>
<trkpt lat="31.7674500" lon="35.0998900">
<ele>579.429993</ele>
<time>2018-05-29T13:49:21.244Z</time>
</trkpt>
<trkpt lat="31.7677200" lon="35.0998000">
<ele>580.919983</ele>
<time>2018-05-29T13:49:21.244Z</time>
</trkpt>
<trkpt lat="31.7679300" lon="35.0995700">
<ele>586.150024</ele>
<time>2018-05-29T13:49:21.244Z</time>
</trkpt>
<trkpt lat="31.7682300" lon="35.0993500">
<ele>589.080017</ele>
<time>2018-05-29T13:49:21.244Z</time>
</trkpt>
<trkpt lat="31.7687200" lon="35.0992050">
<ele>597.200012</ele>
<time>2018-05-29T13:49:21.244Z</time>
</trkpt>
<trkpt lat="31.7692100" lon="35.0990600">
<ele>602.729980</ele>
<time>2018-05-29T13:49:21.244Z</time>
</trkpt>
<trkpt lat="31.7699250" lon="35.0990500">
<ele>608.140015</ele>
<time>2018-05-29T13:49:21.244Z</time>
</trkpt>
<trkpt lat="31.7706400" lon="35.0990400">
<ele>613.440002</ele>
<time>2018-05-29T13:49:21.244Z</time>
</trkpt>
<trkpt lat="31.7708400" lon="35.0989600">
<ele>615.260010</ele>
<time>2018-05-29T13:49:21.244Z</time>
</trkpt>
<trkpt lat="31.7710900" lon="35.0987900">
<ele>617.429993</ele>
<time>2018-05-29T13:49:21.244Z</time>
</trkpt>
<trkpt lat="31.7714800" lon="35.0982400">
<ele>622.270020</ele>
<time>2018-05-29T13:49:21.244Z</time>
</trkpt>
<trkpt lat="31.7717100" lon="35.0978400">
<ele>623.130005</ele>
<time>2018-05-29T13:49:21.244Z</time>
</trkpt>
<trkpt lat="31.7720500" lon="35.0973800">
<ele>626.400024</ele>
<time>2018-05-29T13:49:21.244Z</time>
</trkpt>
<trkpt lat="31.7723500" lon="35.0969000">
<ele>628.000000</ele>
<time>2018-05-29T13:49:21.244Z</time>
</trkpt>
<trkpt lat="31.7724100" lon="35.0968300">
<ele>628.000000</ele>
<time>2018-05-29T13:49:21.244Z</time>
</trkpt>
<trkpt lat="31.7724600" lon="35.0968300">
<ele>627.840027</ele>
<time>2018-05-29T13:49:21.244Z</time>
</trkpt>
<trkpt lat="31.7725900" lon="35.0969300">
<ele>627.549988</ele>
<time>2018-05-29T13:49:21.244Z</time>
</trkpt>
<trkpt lat="31.7726300" lon="35.0970400">
<ele>627.549988</ele>
<time>2018-05-29T13:49:21.244Z</time>
</trkpt>
<trkpt lat="31.7726700" lon="35.0977700">
<ele>626.989990</ele>
<time>2018-05-29T13:49:21.244Z</time>
</trkpt>
<trkpt lat="31.7726500" lon="35.0982500">
<ele>627.089966</ele>
<time>2018-05-29T13:49:21.244Z</time>
</trkpt>
<trkpt lat="31.7726800" lon="35.0986100">
<ele>627.750061</ele>
<time>2018-05-29T13:49:21.244Z</time>
</trkpt>
<trkpt lat="31.7728000" lon="35.0989300">
<ele>629.090027</ele>
<time>2018-05-29T13:49:21.244Z</time>
</trkpt>
<trkpt lat="31.7729900" lon="35.0992900">
<ele>629.829956</ele>
<time>2018-05-29T13:49:21.244Z</time>
</trkpt>
<trkpt lat="31.7730800" lon="35.0994100">
<ele>629.939941</ele>
<time>2018-05-29T13:49:21.244Z</time>
</trkpt>
<trkpt lat="31.7734100" lon="35.0995700">
<ele>630.119995</ele>
<time>2018-05-29T13:49:21.244Z</time>
</trkpt>
<trkpt lat="31.7736000" lon="35.0995700">
<ele>630.119995</ele>
<time>2018-05-29T13:49:21.244Z</time>
</trkpt>
<trkpt lat="31.7740300" lon="35.0995000">
<ele>629.590027</ele>
<time>2018-05-29T13:49:21.244Z</time>
</trkpt>
<trkpt lat="31.7741500" lon="35.0995400">
<ele>629.169983</ele>
<time>2018-05-29T13:49:21.244Z</time>
</trkpt>
<trkpt lat="31.7742200" lon="35.0996500">
<ele>629.010010</ele>
<time>2018-05-29T13:49:21.244Z</time>
</trkpt>
<trkpt lat="31.7742500" lon="35.0999800">
<ele>629.259949</ele>
<time>2018-05-29T13:49:21.244Z</time>
</trkpt>
<trkpt lat="31.7743000" lon="35.1001600">
<ele>629.729980</ele>
<time>2018-05-29T13:49:21.244Z</time>
</trkpt>
<trkpt lat="31.7744200" lon="35.1003600">
<ele>629.929993</ele>
<time>2018-05-29T13:49:21.244Z</time>
</trkpt>
<trkpt lat="31.7751400" lon="35.1009000">
<ele>632.739990</ele>
<time>2018-05-29T13:49:21.244Z</time>
</trkpt>
<trkpt lat="31.7752200" lon="35.1009400">
<ele>632.739990</ele>
<time>2018-05-29T13:49:21.244Z</time>
</trkpt>
<trkpt lat="31.7753200" lon="35.1010000">
<ele>633.149963</ele>
<time>2018-05-29T13:49:21.244Z</time>
</trkpt>
<trkpt lat="31.7758000" lon="35.1012500">
<ele>634.139954</ele>
<time>2018-05-29T13:49:21.245Z</time>
</trkpt>
<trkpt lat="31.7763200" lon="35.1013500">
<ele>633.950012</ele>
<time>2018-05-29T13:49:21.245Z</time>
</trkpt>
<trkpt lat="31.7767200" lon="35.1013200">
<ele>633.899963</ele>
<time>2018-05-29T13:49:21.245Z</time>
</trkpt>
<trkpt lat="31.7773600" lon="35.1011600">
<ele>633.380005</ele>
<time>2018-05-29T13:49:21.245Z</time>
</trkpt>
<trkpt lat="31.7775200" lon="35.1011500">
<ele>633.279968</ele>
<time>2018-05-29T13:49:21.245Z</time>
</trkpt>
<trkpt lat="31.7778400" lon="35.1011600">
<ele>632.979980</ele>
<time>2018-05-29T13:49:21.245Z</time>
</trkpt>
<trkpt lat="31.7780400" lon="35.1012400">
<ele>632.480042</ele>
<time>2018-05-29T13:49:21.245Z</time>
</trkpt>
<trkpt lat="31.7781100" lon="35.1013700">
<ele>632.480042</ele>
<time>2018-05-29T13:49:21.245Z</time>
</trkpt>
<trkpt lat="31.7781300" lon="35.1015300">
<ele>631.760010</ele>
<time>2018-05-29T13:49:21.245Z</time>
</trkpt>
<trkpt lat="31.7781050" lon="35.1020950">
<ele>631.319946</ele>
<time>2018-05-29T13:49:21.245Z</time>
</trkpt>
<trkpt lat="31.7780800" lon="35.1026600">
<ele>631.419983</ele>
<time>2018-05-29T13:49:21.245Z</time>
</trkpt>
<trkpt lat="31.7781800" lon="35.1029000">
<ele>631.449951</ele>
<time>2018-05-29T13:49:21.245Z</time>
</trkpt>
<trkpt lat="31.7786400" lon="35.1037200">
<ele>632.169983</ele>
<time>2018-05-29T13:49:21.245Z</time>
</trkpt>
<trkpt lat="31.7786900" lon="35.1039000">
<ele>632.929993</ele>
<time>2018-05-29T13:49:21.245Z</time>
</trkpt>
<trkpt lat="31.7786600" lon="35.1040600">
<ele>633.390015</ele>
<time>2018-05-29T13:49:21.245Z</time>
</trkpt>
<trkpt lat="31.7783900" lon="35.1046100">
<ele>635.469971</ele>
<time>2018-05-29T13:49:21.245Z</time>
</trkpt>
<trkpt lat="31.7783400" lon="35.1048700">
<ele>635.809998</ele>
<time>2018-05-29T13:49:21.245Z</time>
</trkpt>
<trkpt lat="31.7783600" lon="35.1053700">
<ele>636.349976</ele>
<time>2018-05-29T13:49:21.245Z</time>
</trkpt>
<trkpt lat="31.7784200" lon="35.1057500">
<ele>637.269958</ele>
<time>2018-05-29T13:49:21.245Z</time>
</trkpt>
<trkpt lat="31.7785200" lon="35.1059000">
<ele>637.599976</ele>
<time>2018-05-29T13:49:21.245Z</time>
</trkpt>
<trkpt lat="31.7789400" lon="35.1061500">
<ele>640.000000</ele>
<time>2018-05-29T13:49:21.245Z</time>
</trkpt>
<trkpt lat="31.7790500" lon="35.1063000">
<ele>641.859985</ele>
<time>2018-05-29T13:49:21.245Z</time>
</trkpt>
<trkpt lat="31.7791100" lon="35.1065100">
<ele>645.250000</ele>
<time>2018-05-29T13:49:21.245Z</time>
</trkpt>
<trkpt lat="31.7791100" lon="35.1072900">
<ele>649.329956</ele>
<time>2018-05-29T13:49:21.245Z</time>
</trkpt>
<trkpt lat="31.7789800" lon="35.1077800">
<ele>651.849976</ele>
<time>2018-05-29T13:49:21.245Z</time>
</trkpt>
<trkpt lat="31.7789400" lon="35.1080400">
<ele>654.119995</ele>
<time>2018-05-29T13:49:21.245Z</time>
</trkpt>
<trkpt lat="31.7789500" lon="35.1084400">
<ele>655.149963</ele>
<time>2018-05-29T13:49:21.245Z</time>
</trkpt>
<trkpt lat="31.7788900" lon="35.1089100">
<ele>657.570007</ele>
<time>2018-05-29T13:49:21.245Z</time>
</trkpt>
<trkpt lat="31.7789100" lon="35.1091500">
<ele>660.049988</ele>
<time>2018-05-29T13:49:21.245Z</time>
</trkpt>
<trkpt lat="31.7789600" lon="35.1093900">
<ele>662.910034</ele>
<time>2018-05-29T13:49:21.245Z</time>
</trkpt>
<trkpt lat="31.7790200" lon="35.1095200">
<ele>664.309937</ele>
<time>2018-05-29T13:49:21.245Z</time>
</trkpt>
<trkpt lat="31.7795900" lon="35.1102400">
<ele>670.000061</ele>
<time>2018-05-29T13:49:21.245Z</time>
</trkpt>
<trkpt lat="31.7796700" lon="35.1103800">
<ele>673.350037</ele>
<time>2018-05-29T13:49:21.245Z</time>
</trkpt>
<trkpt lat="31.7797300" lon="35.1106200">
<ele>673.350037</ele>
<time>2018-05-29T13:49:21.245Z</time>
</trkpt>
<trkpt lat="31.7796700" lon="35.1111500">
<ele>675.150024</ele>
<time>2018-05-29T13:49:21.245Z</time>
</trkpt>
<trkpt lat="31.7795500" lon="35.1118000">
<ele>678.000000</ele>
<time>2018-05-29T13:49:21.245Z</time>
</trkpt>
<trkpt lat="31.7795000" lon="35.1123400">
<ele>680.549988</ele>
<time>2018-05-29T13:49:21.245Z</time>
</trkpt>
<trkpt lat="31.7794300" lon="35.1127900">
<ele>685.209961</ele>
<time>2018-05-29T13:49:21.245Z</time>
</trkpt>
<trkpt lat="31.7794500" lon="35.1130400">
<ele>688.489990</ele>
<time>2018-05-29T13:49:21.245Z</time>
</trkpt>
<trkpt lat="31.7795500" lon="35.1133800">
<ele>689.530029</ele>
<time>2018-05-29T13:49:21.245Z</time>
</trkpt>
<trkpt lat="31.7798700" lon="35.1140350">
<ele>694.929993</ele>
<time>2018-05-29T13:49:21.245Z</time>
</trkpt>
<trkpt lat="31.7801900" lon="35.1146900">
<ele>699.769958</ele>
<time>2018-05-29T13:49:21.245Z</time>
</trkpt>
<trkpt lat="31.7803300" lon="35.1149300">
<ele>699.769958</ele>
<time>2018-05-29T13:49:21.245Z</time>
</trkpt>
<trkpt lat="31.7804500" lon="35.1150800">
<ele>703.309998</ele>
<time>2018-05-29T13:49:21.245Z</time>
</trkpt>
<trkpt lat="31.7805500" lon="35.1151600">
<ele>703.309998</ele>
<time>2018-05-29T13:49:21.245Z</time>
</trkpt>
<trkpt lat="31.7807600" lon="35.1152700">
<ele>703.309998</ele>
<time>2018-05-29T13:49:21.245Z</time>
</trkpt>
<trkpt lat="31.7808800" lon="35.1152900">
<ele>708.199951</ele>
<time>2018-05-29T13:49:21.245Z</time>
</trkpt>
<trkpt lat="31.7811600" lon="35.1152900">
<ele>709.260010</ele>
<time>2018-05-29T13:49:21.245Z</time>
</trkpt>
<trkpt lat="31.7816450" lon="35.1152400">
<ele>713.960022</ele>
<time>2018-05-29T13:49:21.245Z</time>
</trkpt>
<trkpt lat="31.7821300" lon="35.1151900">
<ele>719.010010</ele>
<time>2018-05-29T13:49:21.245Z</time>
</trkpt>
<trkpt lat="31.7824500" lon="35.1150800">
<ele>723.829956</ele>
<time>2018-05-29T13:49:21.245Z</time>
</trkpt>
<trkpt lat="31.7826900" lon="35.1149300">
<ele>725.679993</ele>
<time>2018-05-29T13:49:21.245Z</time>
</trkpt>
<trkpt lat="31.7827900" lon="35.1148400">
<ele>726.820007</ele>
<time>2018-05-29T13:49:21.245Z</time>
</trkpt>
<trkpt lat="31.7829600" lon="35.1146100">
<ele>728.099976</ele>
<time>2018-05-29T13:49:21.245Z</time>
</trkpt>
<trkpt lat="31.7830900" lon="35.1145100">
<ele>728.999939</ele>
<time>2018-05-29T13:49:21.245Z</time>
</trkpt>
<trkpt lat="31.7834900" lon="35.1146400">
<ele>716.000000</ele>
<time>2018-05-29T13:49:21.245Z</time>
</trkpt>
<trkpt lat="31.7835700" lon="35.1146900">
<ele>716.000000</ele>
<time>2018-05-29T13:49:21.245Z</time>
</trkpt>
<trkpt lat="31.7836200" lon="35.1147900">
<ele>714.390015</ele>
<time>2018-05-29T13:49:21.245Z</time>
</trkpt>
<trkpt lat="31.7836100" lon="35.1150000">
<ele>713.179993</ele>
<time>2018-05-29T13:49:21.245Z</time>
</trkpt>
<trkpt lat="31.7834600" lon="35.1152200">
<ele>712.049988</ele>
<time>2018-05-29T13:49:21.245Z</time>
</trkpt>
<trkpt lat="31.7834000" lon="35.1153600">
<ele>711.000000</ele>
<time>2018-05-29T13:49:21.245Z</time>
</trkpt>
<trkpt lat="31.7835000" lon="35.1153900">
<ele>711.000000</ele>
<time>2018-05-29T13:49:21.245Z</time>
</trkpt>
<trkpt lat="31.7837950" lon="35.1149450">
<ele>714.000000</ele>
<time>2018-05-29T13:49:21.245Z</time>
</trkpt>
<trkpt lat="31.7840900" lon="35.1145000">
<ele>716.000000</ele>
<time>2018-05-29T13:49:21.245Z</time>
</trkpt>
<trkpt lat="31.7841900" lon="35.1142100">
<ele>715.139954</ele>
<time>2018-05-29T13:49:21.245Z</time>
</trkpt>
<trkpt lat="31.7841700" lon="35.1140500">
<ele>714.919983</ele>
<time>2018-05-29T13:49:21.245Z</time>
</trkpt>
<trkpt lat="31.7841500" lon="35.1139400">
<ele>714.739990</ele>
<time>2018-05-29T13:49:21.245Z</time>
</trkpt>
<trkpt lat="31.7841200" lon="35.1136000">
<ele>714.630005</ele>
<time>2018-05-29T13:49:21.245Z</time>
</trkpt>
<trkpt lat="31.7839850" lon="35.1130300">
<ele>715.130005</ele>
<time>2018-05-29T13:49:21.246Z</time>
</trkpt>
<trkpt lat="31.7838500" lon="35.1124600">
<ele>714.000000</ele>
<time>2018-05-29T13:49:21.246Z</time>
</trkpt>
<trkpt lat="31.7836067" lon="35.1115733">
<ele>712.020020</ele>
<time>2018-05-29T13:49:21.246Z</time>
</trkpt>
<trkpt lat="31.7833633" lon="35.1106867">
<ele>710.200012</ele>
<time>2018-05-29T13:49:21.246Z</time>
</trkpt>
<trkpt lat="31.7831200" lon="35.1098000">
<ele>708.979980</ele>
<time>2018-05-29T13:49:21.246Z</time>
</trkpt>
<trkpt lat="31.7828800" lon="35.1093700">
<ele>707.950012</ele>
<time>2018-05-29T13:49:21.246Z</time>
</trkpt>
<trkpt lat="31.7825500" lon="35.1086700">
<ele>708.799988</ele>
<time>2018-05-29T13:49:21.246Z</time>
</trkpt>
<trkpt lat="31.7824700" lon="35.1077800">
<ele>708.000000</ele>
<time>2018-05-29T13:49:21.246Z</time>
</trkpt>
<trkpt lat="31.7826900" lon="35.1077300">
<ele>698.000061</ele>
<time>2018-05-29T13:49:21.246Z</time>
</trkpt>
<trkpt lat="31.7826300" lon="35.1074900">
<ele>697.410034</ele>
<time>2018-05-29T13:49:21.246Z</time>
</trkpt>
<trkpt lat="31.7823350" lon="35.1065825">
<ele>693.369995</ele>
<time>2018-05-29T13:49:21.246Z</time>
</trkpt>
<trkpt lat="31.7820400" lon="35.1056750">
<ele>690.179993</ele>
<time>2018-05-29T13:49:21.246Z</time>
</trkpt>
<trkpt lat="31.7817450" lon="35.1047675">
<ele>687.150024</ele>
<time>2018-05-29T13:49:21.246Z</time>
</trkpt>
<trkpt lat="31.7814500" lon="35.1038600">
<ele>683.580017</ele>
<time>2018-05-29T13:49:21.246Z</time>
</trkpt>
<trkpt lat="31.7814300" lon="35.1037100">
<ele>683.320007</ele>
<time>2018-05-29T13:49:21.246Z</time>
</trkpt>
<trkpt lat="31.7814600" lon="35.1035300">
<ele>682.469971</ele>
<time>2018-05-29T13:49:21.246Z</time>
</trkpt>
<trkpt lat="31.7815400" lon="35.1033600">
<ele>682.059998</ele>
<time>2018-05-29T13:49:21.246Z</time>
</trkpt>
<trkpt lat="31.7818100" lon="35.1029050">
<ele>678.260010</ele>
<time>2018-05-29T13:49:21.246Z</time>
</trkpt>
<trkpt lat="31.7820800" lon="35.1024500">
<ele>672.640015</ele>
<time>2018-05-29T13:49:21.246Z</time>
</trkpt>
<trkpt lat="31.7822300" lon="35.1020300">
<ele>667.649963</ele>
<time>2018-05-29T13:49:21.246Z</time>
</trkpt>
<trkpt lat="31.7822600" lon="35.1018700">
<ele>666.350037</ele>
<time>2018-05-29T13:49:21.246Z</time>
</trkpt>
<trkpt lat="31.7822700" lon="35.1014800">
<ele>665.049988</ele>
<time>2018-05-29T13:49:21.246Z</time>
</trkpt>
<trkpt lat="31.7822300" lon="35.1009600">
<ele>662.579956</ele>
<time>2018-05-29T13:49:21.246Z</time>
</trkpt>
<trkpt lat="31.7822100" lon="35.1000300">
<ele>660.640015</ele>
<time>2018-05-29T13:49:21.246Z</time>
</trkpt>
<trkpt lat="31.7821200" lon="35.0994250">
<ele>660.489990</ele>
<time>2018-05-29T13:49:21.246Z</time>
</trkpt>
<trkpt lat="31.7820300" lon="35.0988200">
<ele>659.750000</ele>
<time>2018-05-29T13:49:21.246Z</time>
</trkpt>
<trkpt lat="31.7819700" lon="35.0981300">
<ele>657.889954</ele>
<time>2018-05-29T13:49:21.246Z</time>
</trkpt>
<trkpt lat="31.7819600" lon="35.0977100">
<ele>656.560059</ele>
<time>2018-05-29T13:49:21.246Z</time>
</trkpt>
<trkpt lat="31.7820300" lon="35.0970700">
<ele>655.450012</ele>
<time>2018-05-29T13:49:21.246Z</time>
</trkpt>
<trkpt lat="31.7822150" lon="35.0964050">
<ele>651.779968</ele>
<time>2018-05-29T13:49:21.246Z</time>
</trkpt>
<trkpt lat="31.7824000" lon="35.0957400">
<ele>648.619995</ele>
<time>2018-05-29T13:49:21.246Z</time>
</trkpt>
<trkpt lat="31.7825400" lon="35.0951600">
<ele>646.000000</ele>
<time>2018-05-29T13:49:21.246Z</time>
</trkpt>
<trkpt lat="31.7826350" lon="35.0945900">
<ele>646.440002</ele>
<time>2018-05-29T13:49:21.246Z</time>
</trkpt>
<trkpt lat="31.7827300" lon="35.0940200">
<ele>645.000061</ele>
<time>2018-05-29T13:49:21.246Z</time>
</trkpt>
<trkpt lat="31.7829600" lon="35.0931200">
<ele>638.159973</ele>
<time>2018-05-29T13:49:21.246Z</time>
</trkpt>
<trkpt lat="31.7832100" lon="35.0922500">
<ele>630.990051</ele>
<time>2018-05-29T13:49:21.246Z</time>
</trkpt>
<trkpt lat="31.7832500" lon="35.0918900">
<ele>627.840027</ele>
<time>2018-05-29T13:49:21.246Z</time>
</trkpt>
<trkpt lat="31.7832400" lon="35.0916300">
<ele>626.970032</ele>
<time>2018-05-29T13:49:21.246Z</time>
</trkpt>
<trkpt lat="31.7832600" lon="35.0910850">
<ele>623.400024</ele>
<time>2018-05-29T13:49:21.246Z</time>
</trkpt>
<trkpt lat="31.7832800" lon="35.0905400">
<ele>619.630005</ele>
<time>2018-05-29T13:49:21.246Z</time>
</trkpt>
<trkpt lat="31.7831900" lon="35.0896000">
<ele>612.360046</ele>
<time>2018-05-29T13:49:21.246Z</time>
</trkpt>
<trkpt lat="31.7831600" lon="35.0891000">
<ele>609.109985</ele>
<time>2018-05-29T13:49:21.246Z</time>
</trkpt>
<trkpt lat="31.7830900" lon="35.0887700">
<ele>606.770020</ele>
<time>2018-05-29T13:49:21.246Z</time>
</trkpt>
<trkpt lat="31.7828950" lon="35.0880400">
<ele>602.950012</ele>
<time>2018-05-29T13:49:21.246Z</time>
</trkpt>
<trkpt lat="31.7827000" lon="35.0873100">
<ele>601.539978</ele>
<time>2018-05-29T13:49:21.246Z</time>
</trkpt>
<trkpt lat="31.7826300" lon="35.0869500">
<ele>600.770020</ele>
<time>2018-05-29T13:49:21.246Z</time>
</trkpt>
<trkpt lat="31.7825700" lon="35.0862300">
<ele>595.309998</ele>
<time>2018-05-29T13:49:21.246Z</time>
</trkpt>
<trkpt lat="31.7825200" lon="35.0859800">
<ele>593.289978</ele>
<time>2018-05-29T13:49:21.246Z</time>
</trkpt>
<trkpt lat="31.7823100" lon="35.0852300">
<ele>586.619995</ele>
<time>2018-05-29T13:49:21.246Z</time>
</trkpt>
<trkpt lat="31.7824300" lon="35.0851100">
<ele>586.070007</ele>
<time>2018-05-29T13:49:21.246Z</time>
</trkpt>
<trkpt lat="31.7824700" lon="35.0850400">
<ele>586.070007</ele>
<time>2018-05-29T13:49:21.246Z</time>
</trkpt>
<trkpt lat="31.7826500" lon="35.0842600">
<ele>582.159973</ele>
<time>2018-05-29T13:49:21.246Z</time>
</trkpt>
<trkpt lat="31.7828600" lon="35.0837100">
<ele>579.450012</ele>
<time>2018-05-29T13:49:21.246Z</time>
</trkpt>
<trkpt lat="31.7830800" lon="35.0832300">
<ele>577.770020</ele>
<time>2018-05-29T13:49:21.246Z</time>
</trkpt>
<trkpt lat="31.7832000" lon="35.0830100">
<ele>577.190002</ele>
<time>2018-05-29T13:49:21.246Z</time>
</trkpt>
<trkpt lat="31.7836400" lon="35.0823300">
<ele>576.549988</ele>
<time>2018-05-29T13:49:21.246Z</time>
</trkpt>
<trkpt lat="31.7838600" lon="35.0819400">
<ele>576.390015</ele>
<time>2018-05-29T13:49:21.246Z</time>
</trkpt>
<trkpt lat="31.7841800" lon="35.0814800">
<ele>577.250000</ele>
<time>2018-05-29T13:49:21.246Z</time>
</trkpt>
<trkpt lat="31.7844300" lon="35.0810600">
<ele>577.500000</ele>
<time>2018-05-29T13:49:21.246Z</time>
</trkpt>
<trkpt lat="31.7848100" lon="35.0802400">
<ele>580.349976</ele>
<time>2018-05-29T13:49:21.246Z</time>
</trkpt>
<trkpt lat="31.7850400" lon="35.0798000">
<ele>582.260010</ele>
<time>2018-05-29T13:49:21.246Z</time>
</trkpt>
<trkpt lat="31.7852900" lon="35.0792600">
<ele>584.429993</ele>
<time>2018-05-29T13:49:21.246Z</time>
</trkpt>
<trkpt lat="31.7855400" lon="35.0787200">
<ele>586.000000</ele>
<time>2018-05-29T13:49:21.246Z</time>
</trkpt>
<trkpt lat="31.7855800" lon="35.0786300">
<ele>586.000000</ele>
<time>2018-05-29T13:49:21.246Z</time>
</trkpt>
<trkpt lat="31.7857100" lon="35.0785100">
<ele>586.000000</ele>
<time>2018-05-29T13:49:21.246Z</time>
</trkpt>
<trkpt lat="31.7857800" lon="35.0785100">
<ele>586.000000</ele>
<time>2018-05-29T13:49:21.246Z</time>
</trkpt>
<trkpt lat="31.7858200" lon="35.0785500">
<ele>586.000000</ele>
<time>2018-05-29T13:49:21.246Z</time>
</trkpt>
<trkpt lat="31.7858900" lon="35.0786900">
<ele>586.500000</ele>
<time>2018-05-29T13:49:21.246Z</time>
</trkpt>
<trkpt lat="31.7857800" lon="35.0787900">
<ele>587.559998</ele>
<time>2018-05-29T13:49:21.246Z</time>
</trkpt>
<trkpt lat="31.7856500" lon="35.0785500">
<ele>586.000000</ele>
<time>2018-05-29T13:49:21.247Z</time>
</trkpt>
<trkpt lat="31.7857100" lon="35.0785100">
<ele>586.000000</ele>
<time>2018-05-29T13:49:21.247Z</time>
</trkpt>
<trkpt lat="31.7857800" lon="35.0785100">
<ele>586.000000</ele>
<time>2018-05-29T13:49:21.247Z</time>
</trkpt>
<trkpt lat="31.7858900" lon="35.0786200">
<ele>586.000000</ele>
<time>2018-05-29T13:49:21.247Z</time>
</trkpt>
<trkpt lat="31.7860700" lon="35.0788900">
<ele>583.809998</ele>
<time>2018-05-29T13:49:21.247Z</time>
</trkpt>
<trkpt lat="31.7863250" lon="35.0793300">
<ele>580.099976</ele>
<time>2018-05-29T13:49:21.247Z</time>
</trkpt>
<trkpt lat="31.7865800" lon="35.0797700">
<ele>578.710022</ele>
<time>2018-05-29T13:49:21.247Z</time>
</trkpt>
<trkpt lat="31.7867400" lon="35.0800000">
<ele>578.000000</ele>
<time>2018-05-29T13:49:21.247Z</time>
</trkpt>
<trkpt lat="31.7870100" lon="35.0802800">
<ele>577.179993</ele>
<time>2018-05-29T13:49:21.247Z</time>
</trkpt>
<trkpt lat="31.7875500" lon="35.0807200">
<ele>576.220032</ele>
<time>2018-05-29T13:49:21.247Z</time>
</trkpt>
<trkpt lat="31.7878600" lon="35.0810100">
<ele>575.660034</ele>
<time>2018-05-29T13:49:21.247Z</time>
</trkpt>
<trkpt lat="31.7880100" lon="35.0811200">
<ele>575.219971</ele>
<time>2018-05-29T13:49:21.247Z</time>
</trkpt>
<trkpt lat="31.7888000" lon="35.0815400">
<ele>573.790039</ele>
<time>2018-05-29T13:49:21.247Z</time>
</trkpt>
<trkpt lat="31.7889800" lon="35.0816000">
<ele>573.530029</ele>
<time>2018-05-29T13:49:21.247Z</time>
</trkpt>
<trkpt lat="31.7891200" lon="35.0816100">
<ele>573.000000</ele>
<time>2018-05-29T13:49:21.247Z</time>
</trkpt>
<trkpt lat="31.7895500" lon="35.0815800">
<ele>573.169983</ele>
<time>2018-05-29T13:49:21.247Z</time>
</trkpt>
<trkpt lat="31.7898000" lon="35.0815900">
<ele>573.270020</ele>
<time>2018-05-29T13:49:21.247Z</time>
</trkpt>
<trkpt lat="31.7899400" lon="35.0816500">
<ele>573.270020</ele>
<time>2018-05-29T13:49:21.247Z</time>
</trkpt>
<trkpt lat="31.7906500" lon="35.0821400">
<ele>573.100037</ele>
<time>2018-05-29T13:49:21.247Z</time>
</trkpt>
<trkpt lat="31.7909400" lon="35.0824000">
<ele>573.200012</ele>
<time>2018-05-29T13:49:21.247Z</time>
</trkpt>
<trkpt lat="31.7914900" lon="35.0830150">
<ele>572.570007</ele>
<time>2018-05-29T13:49:21.247Z</time>
</trkpt>
<trkpt lat="31.7920400" lon="35.0836300">
<ele>569.590027</ele>
<time>2018-05-29T13:49:21.247Z</time>
</trkpt>
<trkpt lat="31.7925400" lon="35.0841200">
<ele>565.950012</ele>
<time>2018-05-29T13:49:21.247Z</time>
</trkpt>
<trkpt lat="31.7929800" lon="35.0845000">
<ele>562.820007</ele>
<time>2018-05-29T13:49:21.247Z</time>
</trkpt>
<trkpt lat="31.7931100" lon="35.0846500">
<ele>561.779968</ele>
<time>2018-05-29T13:49:21.247Z</time>
</trkpt>
<trkpt lat="31.7932200" lon="35.0848700">
<ele>560.720032</ele>
<time>2018-05-29T13:49:21.247Z</time>
</trkpt>
<trkpt lat="31.7932900" lon="35.0851100">
<ele>558.590027</ele>
<time>2018-05-29T13:49:21.247Z</time>
</trkpt>
<trkpt lat="31.7934150" lon="35.0857750">
<ele>555.809998</ele>
<time>2018-05-29T13:49:21.247Z</time>
</trkpt>
<trkpt lat="31.7935400" lon="35.0864400">
<ele>554.169983</ele>
<time>2018-05-29T13:49:21.301Z</time>
</trkpt>
<trkpt lat="31.7936300" lon="35.0874100">
<ele>551.739990</ele>
<time>2018-05-29T13:49:21.301Z</time>
</trkpt>
<trkpt lat="31.7936600" lon="35.0881400">
<ele>548.500000</ele>
<time>2018-05-29T13:49:21.301Z</time>
</trkpt>
<trkpt lat="31.7937000" lon="35.0882800">
<ele>548.000000</ele>
<time>2018-05-29T13:49:21.301Z</time>
</trkpt>
<trkpt lat="31.7937400" lon="35.0883200">
<ele>547.270020</ele>
<time>2018-05-29T13:49:21.301Z</time>
</trkpt>
<trkpt lat="31.7937700" lon="35.0883200">
<ele>546.539978</ele>
<time>2018-05-29T13:49:21.301Z</time>
</trkpt>
<trkpt lat="31.7938300" lon="35.0882800">
<ele>546.539978</ele>
<time>2018-05-29T13:49:21.301Z</time>
</trkpt>
<trkpt lat="31.7939200" lon="35.0880900">
<ele>545.309998</ele>
<time>2018-05-29T13:49:21.301Z</time>
</trkpt>
<trkpt lat="31.7940900" lon="35.0871300">
<ele>538.809998</ele>
<time>2018-05-29T13:49:21.301Z</time>
</trkpt>
<trkpt lat="31.7943200" lon="35.0863700">
<ele>532.679993</ele>
<time>2018-05-29T13:49:21.301Z</time>
</trkpt>
<trkpt lat="31.7944000" lon="35.0862300">
<ele>530.380005</ele>
<time>2018-05-29T13:49:21.301Z</time>
</trkpt>
<trkpt lat="31.7946000" lon="35.0859800">
<ele>527.000000</ele>
<time>2018-05-29T13:49:21.301Z</time>
</trkpt>
<trkpt lat="31.7948400" lon="35.0859700">
<ele>527.000000</ele>
<time>2018-05-29T13:49:21.301Z</time>
</trkpt>
<trkpt lat="31.7950900" lon="35.0854100">
<ele>521.000000</ele>
<time>2018-05-29T13:49:21.302Z</time>
</trkpt>
<trkpt lat="31.7951300" lon="35.0852600">
<ele>521.169983</ele>
<time>2018-05-29T13:49:21.302Z</time>
</trkpt>
<trkpt lat="31.7952000" lon="35.0851000">
<ele>521.169983</ele>
<time>2018-05-29T13:49:21.302Z</time>
</trkpt>
<trkpt lat="31.7954300" lon="35.0847300">
<ele>521.489990</ele>
<time>2018-05-29T13:49:21.302Z</time>
</trkpt>
<trkpt lat="31.7957700" lon="35.0843600">
<ele>523.429993</ele>
<time>2018-05-29T13:49:21.302Z</time>
</trkpt>
<trkpt lat="31.7958800" lon="35.0842200">
<ele>523.979980</ele>
<time>2018-05-29T13:49:21.302Z</time>
</trkpt>
<trkpt lat="31.7959600" lon="35.0840400">
<ele>524.919983</ele>
<time>2018-05-29T13:49:21.302Z</time>
</trkpt>
<trkpt lat="31.7960800" lon="35.0832800">
<ele>527.179993</ele>
<time>2018-05-29T13:49:21.302Z</time>
</trkpt>
<trkpt lat="31.7961000" lon="35.0827200">
<ele>531.010010</ele>
<time>2018-05-29T13:49:21.302Z</time>
</trkpt>
<trkpt lat="31.7960800" lon="35.0824100">
<ele>533.089966</ele>
<time>2018-05-29T13:49:21.302Z</time>
</trkpt>
<trkpt lat="31.7961000" lon="35.0821200">
<ele>534.549988</ele>
<time>2018-05-29T13:49:21.302Z</time>
</trkpt>
<trkpt lat="31.7963300" lon="35.0812000">
<ele>540.959961</ele>
<time>2018-05-29T13:49:21.302Z</time>
</trkpt>
<trkpt lat="31.7963900" lon="35.0810500">
<ele>541.570007</ele>
<time>2018-05-29T13:49:21.302Z</time>
</trkpt>
<trkpt lat="31.7965600" lon="35.0807500">
<ele>543.690002</ele>
<time>2018-05-29T13:49:21.302Z</time>
</trkpt>
<trkpt lat="31.7965900" lon="35.0806200">
<ele>544.619995</ele>
<time>2018-05-29T13:49:21.302Z</time>
</trkpt>
<trkpt lat="31.7965900" lon="35.0804900">
<ele>546.030029</ele>
<time>2018-05-29T13:49:21.302Z</time>
</trkpt>
<trkpt lat="31.7965500" lon="35.0802000">
<ele>547.960022</ele>
<time>2018-05-29T13:49:21.302Z</time>
</trkpt>
<trkpt lat="31.7965900" lon="35.0796900">
<ele>555.440002</ele>
<time>2018-05-29T13:49:21.302Z</time>
</trkpt>
<trkpt lat="31.7965700" lon="35.0795000">
<ele>558.160034</ele>
<time>2018-05-29T13:49:21.302Z</time>
</trkpt>
<trkpt lat="31.7964400" lon="35.0788000">
<ele>564.760010</ele>
<time>2018-05-29T13:49:21.302Z</time>
</trkpt>
<trkpt lat="31.7963500" lon="35.0786400">
<ele>565.419983</ele>
<time>2018-05-29T13:49:21.302Z</time>
</trkpt>
<trkpt lat="31.7957500" lon="35.0781900">
<ele>570.380005</ele>
<time>2018-05-29T13:49:21.302Z</time>
</trkpt>
<trkpt lat="31.7951700" lon="35.0779900">
<ele>569.390015</ele>
<time>2018-05-29T13:49:21.302Z</time>
</trkpt>
<trkpt lat="31.7946100" lon="35.0778800">
<ele>567.359985</ele>
<time>2018-05-29T13:49:21.302Z</time>
</trkpt>
<trkpt lat="31.7943700" lon="35.0778000">
<ele>566.700012</ele>
<time>2018-05-29T13:49:21.302Z</time>
</trkpt>
<trkpt lat="31.7938700" lon="35.0776800">
<ele>565.820007</ele>
<time>2018-05-29T13:49:21.302Z</time>
</trkpt>
<trkpt lat="31.7936500" lon="35.0777000">
<ele>564.809998</ele>
<time>2018-05-29T13:49:21.302Z</time>
</trkpt>
<trkpt lat="31.7934200" lon="35.0776800">
<ele>562.869995</ele>
<time>2018-05-29T13:49:21.302Z</time>
</trkpt>
<trkpt lat="31.7932100" lon="35.0775800">
<ele>562.210022</ele>
<time>2018-05-29T13:49:21.302Z</time>
</trkpt>
<trkpt lat="31.7929100" lon="35.0773300">
<ele>561.909973</ele>
<time>2018-05-29T13:49:21.302Z</time>
</trkpt>
<trkpt lat="31.7927900" lon="35.0772000">
<ele>561.089966</ele>
<time>2018-05-29T13:49:21.302Z</time>
</trkpt>
<trkpt lat="31.7927200" lon="35.0770400">
<ele>559.690002</ele>
<time>2018-05-29T13:49:21.302Z</time>
</trkpt>
<trkpt lat="31.7926600" lon="35.0767700">
<ele>558.099976</ele>
<time>2018-05-29T13:49:21.302Z</time>
</trkpt>
<trkpt lat="31.7926700" lon="35.0765800">
<ele>557.669983</ele>
<time>2018-05-29T13:49:21.302Z</time>
</trkpt>
<trkpt lat="31.7929600" lon="35.0757200">
<ele>552.940002</ele>
<time>2018-05-29T13:49:21.302Z</time>
</trkpt>
<trkpt lat="31.7931300" lon="35.0753100">
<ele>549.580017</ele>
<time>2018-05-29T13:49:21.302Z</time>
</trkpt>
<trkpt lat="31.7931300" lon="35.0751000">
<ele>548.900024</ele>
<time>2018-05-29T13:49:21.302Z</time>
</trkpt>
<trkpt lat="31.7930700" lon="35.0749700">
<ele>548.239990</ele>
<time>2018-05-29T13:49:21.302Z</time>
</trkpt>
<trkpt lat="31.7929100" lon="35.0747700">
<ele>545.709961</ele>
<time>2018-05-29T13:49:21.302Z</time>
</trkpt>
<trkpt lat="31.7926500" lon="35.0743300">
<ele>539.790039</ele>
<time>2018-05-29T13:49:21.302Z</time>
</trkpt>
<trkpt lat="31.7923300" lon="35.0738800">
<ele>537.299988</ele>
<time>2018-05-29T13:49:21.302Z</time>
</trkpt>
<trkpt lat="31.7922100" lon="35.0737500">
<ele>534.599976</ele>
<time>2018-05-29T13:49:21.302Z</time>
</trkpt>
<trkpt lat="31.7917400" lon="35.0733200">
<ele>529.979980</ele>
<time>2018-05-29T13:49:21.302Z</time>
</trkpt>
<trkpt lat="31.7914700" lon="35.0729800">
<ele>528.669983</ele>
<time>2018-05-29T13:49:21.302Z</time>
</trkpt>
<trkpt lat="31.7910700" lon="35.0722700">
<ele>528.960022</ele>
<time>2018-05-29T13:49:21.302Z</time>
</trkpt>
<trkpt lat="31.7905700" lon="35.0715000">
<ele>531.080017</ele>
<time>2018-05-29T13:49:21.302Z</time>
</trkpt>
<trkpt lat="31.7905000" lon="35.0713300">
<ele>531.660034</ele>
<time>2018-05-29T13:49:21.302Z</time>
</trkpt>
<trkpt lat="31.7904700" lon="35.0710100">
<ele>533.030029</ele>
<time>2018-05-29T13:49:21.302Z</time>
</trkpt>
<trkpt lat="31.7905500" lon="35.0704500">
<ele>534.250000</ele>
<time>2018-05-29T13:49:21.302Z</time>
</trkpt>
<trkpt lat="31.7905400" lon="35.0702300">
<ele>534.250000</ele>
<time>2018-05-29T13:49:21.302Z</time>
</trkpt>
<trkpt lat="31.7904800" lon="35.0699600">
<ele>534.579956</ele>
<time>2018-05-29T13:49:21.302Z</time>
</trkpt>
<trkpt lat="31.7904000" lon="35.0697100">
<ele>535.190002</ele>
<time>2018-05-29T13:49:21.302Z</time>
</trkpt>
<trkpt lat="31.7903200" lon="35.0695600">
<ele>535.239990</ele>
<time>2018-05-29T13:49:21.302Z</time>
</trkpt>
<trkpt lat="31.7901500" lon="35.0693300">
<ele>535.080017</ele>
<time>2018-05-29T13:49:21.302Z</time>
</trkpt>
<trkpt lat="31.7895400" lon="35.0687100">
<ele>535.960022</ele>
<time>2018-05-29T13:49:21.302Z</time>
</trkpt>
<trkpt lat="31.7892300" lon="35.0683200">
<ele>537.559998</ele>
<time>2018-05-29T13:49:21.302Z</time>
</trkpt>
<trkpt lat="31.7891300" lon="35.0681200">
<ele>537.880005</ele>
<time>2018-05-29T13:49:21.302Z</time>
</trkpt>
<trkpt lat="31.7891100" lon="35.0679800">
<ele>538.000000</ele>
<time>2018-05-29T13:49:21.302Z</time>
</trkpt>
<trkpt lat="31.7891100" lon="35.0678700">
<ele>538.000000</ele>
<time>2018-05-29T13:49:21.302Z</time>
</trkpt>
<trkpt lat="31.7891700" lon="35.0676500">
<ele>540.450012</ele>
<time>2018-05-29T13:49:21.302Z</time>
</trkpt>
<trkpt lat="31.7893600" lon="35.0672900">
<ele>544.150024</ele>
<time>2018-05-29T13:49:21.302Z</time>
</trkpt>
<trkpt lat="31.7893300" lon="35.0673400">
<ele>543.890015</ele>
<time>2018-05-29T13:49:21.302Z</time>
</trkpt>
<trkpt lat="31.7895900" lon="35.0668800">
<ele>547.590027</ele>
<time>2018-05-29T13:49:21.302Z</time>
</trkpt>
<trkpt lat="31.7898600" lon="35.0662700">
<ele>555.320007</ele>
<time>2018-05-29T13:49:21.302Z</time>
</trkpt>
<trkpt lat="31.7899400" lon="35.0660500">
<ele>557.279968</ele>
<time>2018-05-29T13:49:21.302Z</time>
</trkpt>
<trkpt lat="31.7899900" lon="35.0657700">
<ele>558.840027</ele>
<time>2018-05-29T13:49:21.302Z</time>
</trkpt>
<trkpt lat="31.7900200" lon="35.0654000">
<ele>560.809998</ele>
<time>2018-05-29T13:49:21.302Z</time>
</trkpt>
<trkpt lat="31.7900000" lon="35.0643500">
<ele>562.000000</ele>
<time>2018-05-29T13:49:21.302Z</time>
</trkpt>
<trkpt lat="31.7900600" lon="35.0639200">
<ele>564.570007</ele>
<time>2018-05-29T13:49:21.302Z</time>
</trkpt>
<trkpt lat="31.7902000" lon="35.0633800">
<ele>568.039978</ele>
<time>2018-05-29T13:49:21.303Z</time>
</trkpt>
<trkpt lat="31.7902400" lon="35.0631200">
<ele>569.119995</ele>
<time>2018-05-29T13:49:21.303Z</time>
</trkpt>
<trkpt lat="31.7902300" lon="35.0630000">
<ele>570.190002</ele>
<time>2018-05-29T13:49:21.303Z</time>
</trkpt>
<trkpt lat="31.7901700" lon="35.0626700">
<ele>571.520020</ele>
<time>2018-05-29T13:49:21.303Z</time>
</trkpt>
<trkpt lat="31.7899700" lon="35.0619400">
<ele>575.899963</ele>
<time>2018-05-29T13:49:21.303Z</time>
</trkpt>
<trkpt lat="31.7898700" lon="35.0610100">
<ele>579.359985</ele>
<time>2018-05-29T13:49:21.303Z</time>
</trkpt>
<trkpt lat="31.7898100" lon="35.0606300">
<ele>579.900024</ele>
<time>2018-05-29T13:49:21.303Z</time>
</trkpt>
<trkpt lat="31.7896700" lon="35.0601600">
<ele>581.469971</ele>
<time>2018-05-29T13:49:21.303Z</time>
</trkpt>
<trkpt lat="31.7895100" lon="35.0599100">
<ele>582.119995</ele>
<time>2018-05-29T13:49:21.303Z</time>
</trkpt>
<trkpt lat="31.7893100" lon="35.0596800">
<ele>582.010010</ele>
<time>2018-05-29T13:49:21.303Z</time>
</trkpt>
<trkpt lat="31.7888400" lon="35.0592100">
<ele>581.450012</ele>
<time>2018-05-29T13:49:21.303Z</time>
</trkpt>
<trkpt lat="31.7886000" lon="35.0588000">
<ele>581.169983</ele>
<time>2018-05-29T13:49:21.303Z</time>
</trkpt>
<trkpt lat="31.7883300" lon="35.0580500">
<ele>579.729980</ele>
<time>2018-05-29T13:49:21.303Z</time>
</trkpt>
<trkpt lat="31.7882800" lon="35.0578100">
<ele>579.109985</ele>
<time>2018-05-29T13:49:21.303Z</time>
</trkpt>
<trkpt lat="31.7881700" lon="35.0568200">
<ele>576.770020</ele>
<time>2018-05-29T13:49:21.303Z</time>
</trkpt>
<trkpt lat="31.7881700" lon="35.0565400">
<ele>575.739990</ele>
<time>2018-05-29T13:49:21.303Z</time>
</trkpt>
<trkpt lat="31.7883500" lon="35.0559300">
<ele>574.170044</ele>
<time>2018-05-29T13:49:21.303Z</time>
</trkpt>
<trkpt lat="31.7884000" lon="35.0555200">
<ele>572.779968</ele>
<time>2018-05-29T13:49:21.303Z</time>
</trkpt>
<trkpt lat="31.7884400" lon="35.0554400">
<ele>572.779968</ele>
<time>2018-05-29T13:49:21.303Z</time>
</trkpt>
<trkpt lat="31.7885600" lon="35.0553000">
<ele>571.099976</ele>
<time>2018-05-29T13:49:21.303Z</time>
</trkpt>
<trkpt lat="31.7886900" lon="35.0552300">
<ele>570.279968</ele>
<time>2018-05-29T13:49:21.303Z</time>
</trkpt>
<trkpt lat="31.7889500" lon="35.0551900">
<ele>569.219971</ele>
<time>2018-05-29T13:49:21.303Z</time>
</trkpt>
<trkpt lat="31.7892100" lon="35.0552200">
<ele>569.119995</ele>
<time>2018-05-29T13:49:21.303Z</time>
</trkpt>
<trkpt lat="31.7896000" lon="35.0553100">
<ele>569.440002</ele>
<time>2018-05-29T13:49:21.303Z</time>
</trkpt>
<trkpt lat="31.7900900" lon="35.0554000">
<ele>570.000000</ele>
<time>2018-05-29T13:49:21.303Z</time>
</trkpt>
<trkpt lat="31.7902500" lon="35.0554100">
<ele>570.000000</ele>
<time>2018-05-29T13:49:21.303Z</time>
</trkpt>
<trkpt lat="31.7903100" lon="35.0553600">
<ele>569.659973</ele>
<time>2018-05-29T13:49:21.303Z</time>
</trkpt>
<trkpt lat="31.7902900" lon="35.0552000">
<ele>569.280029</ele>
<time>2018-05-29T13:49:21.303Z</time>
</trkpt>
<trkpt lat="31.7900000" lon="35.0548200">
<ele>567.280029</ele>
<time>2018-05-29T13:49:21.303Z</time>
</trkpt>
<trkpt lat="31.7896200" lon="35.0542500">
<ele>563.229980</ele>
<time>2018-05-29T13:49:21.303Z</time>
</trkpt>
<trkpt lat="31.7893000" lon="35.0536400">
<ele>562.350037</ele>
<time>2018-05-29T13:49:21.303Z</time>
</trkpt>
<trkpt lat="31.7891800" lon="35.0533300">
<ele>561.440002</ele>
<time>2018-05-29T13:49:21.303Z</time>
</trkpt>
<trkpt lat="31.7891700" lon="35.0530800">
<ele>560.529968</ele>
<time>2018-05-29T13:49:21.303Z</time>
</trkpt>
<trkpt lat="31.7891900" lon="35.0530000">
<ele>560.529968</ele>
<time>2018-05-29T13:49:21.303Z</time>
</trkpt>
<trkpt lat="31.7892800" lon="35.0528100">
<ele>560.200012</ele>
<time>2018-05-29T13:49:21.303Z</time>
</trkpt>
<trkpt lat="31.7893600" lon="35.0527200">
<ele>560.200012</ele>
<time>2018-05-29T13:49:21.303Z</time>
</trkpt>
<trkpt lat="31.7894800" lon="35.0526400">
<ele>559.969971</ele>
<time>2018-05-29T13:49:21.303Z</time>
</trkpt>
<trkpt lat="31.7896800" lon="35.0525400">
<ele>559.969971</ele>
<time>2018-05-29T13:49:21.303Z</time>
</trkpt>
<trkpt lat="31.7897500" lon="35.0525300">
<ele>559.969971</ele>
<time>2018-05-29T13:49:21.303Z</time>
</trkpt>
<trkpt lat="31.7901100" lon="35.0523600">
<ele>559.839966</ele>
<time>2018-05-29T13:49:21.303Z</time>
</trkpt>
<trkpt lat="31.7901800" lon="35.0523500">
<ele>559.839966</ele>
<time>2018-05-29T13:49:21.303Z</time>
</trkpt>
<trkpt lat="31.7903900" lon="35.0522700">
<ele>559.719971</ele>
<time>2018-05-29T13:49:21.303Z</time>
</trkpt>
<trkpt lat="31.7905500" lon="35.0521800">
<ele>559.719971</ele>
<time>2018-05-29T13:49:21.303Z</time>
</trkpt>
<trkpt lat="31.7906500" lon="35.0520600">
<ele>559.599976</ele>
<time>2018-05-29T13:49:21.303Z</time>
</trkpt>
<trkpt lat="31.7905900" lon="35.0519100">
<ele>559.340027</ele>
<time>2018-05-29T13:49:21.303Z</time>
</trkpt>
<trkpt lat="31.7904400" lon="35.0516600">
<ele>558.779968</ele>
<time>2018-05-29T13:49:21.303Z</time>
</trkpt>
<trkpt lat="31.7902000" lon="35.0511400">
<ele>556.929993</ele>
<time>2018-05-29T13:49:21.303Z</time>
</trkpt>
<trkpt lat="31.7901400" lon="35.0510400">
<ele>556.650024</ele>
<time>2018-05-29T13:49:21.303Z</time>
</trkpt>
<trkpt lat="31.7899900" lon="35.0509200">
<ele>556.289978</ele>
<time>2018-05-29T13:49:21.303Z</time>
</trkpt>
<trkpt lat="31.7895000" lon="35.0507600">
<ele>554.090027</ele>
<time>2018-05-29T13:49:21.303Z</time>
</trkpt>
<trkpt lat="31.7893100" lon="35.0506600">
<ele>553.200012</ele>
<time>2018-05-29T13:49:21.303Z</time>
</trkpt>
<trkpt lat="31.7891000" lon="35.0504300">
<ele>551.400024</ele>
<time>2018-05-29T13:49:21.303Z</time>
</trkpt>
<trkpt lat="31.7890200" lon="35.0502800">
<ele>550.289978</ele>
<time>2018-05-29T13:49:21.303Z</time>
</trkpt>
<trkpt lat="31.7889300" lon="35.0499100">
<ele>549.770020</ele>
<time>2018-05-29T13:49:21.303Z</time>
</trkpt>
<trkpt lat="31.7889500" lon="35.0496200">
<ele>549.659973</ele>
<time>2018-05-29T13:49:21.303Z</time>
</trkpt>
<trkpt lat="31.7890700" lon="35.0492100">
<ele>549.559998</ele>
<time>2018-05-29T13:49:21.303Z</time>
</trkpt>
<trkpt lat="31.7892700" lon="35.0486900">
<ele>549.409973</ele>
<time>2018-05-29T13:49:21.303Z</time>
</trkpt>
<trkpt lat="31.7894700" lon="35.0481700">
<ele>549.409973</ele>
<time>2018-05-29T13:49:21.303Z</time>
</trkpt>
<trkpt lat="31.7895100" lon="35.0480000">
<ele>549.279968</ele>
<time>2018-05-29T13:49:21.303Z</time>
</trkpt>
<trkpt lat="31.7895100" lon="35.0477900">
<ele>549.279968</ele>
<time>2018-05-29T13:49:21.303Z</time>
</trkpt>
<trkpt lat="31.7894400" lon="35.0476000">
<ele>549.080017</ele>
<time>2018-05-29T13:49:21.303Z</time>
</trkpt>
<trkpt lat="31.7893100" lon="35.0473900">
<ele>549.080017</ele>
<time>2018-05-29T13:49:21.303Z</time>
</trkpt>
<trkpt lat="31.7889100" lon="35.0469600">
<ele>549.080017</ele>
<time>2018-05-29T13:49:21.303Z</time>
</trkpt>
<trkpt lat="31.7884900" lon="35.0465700">
<ele>548.830017</ele>
<time>2018-05-29T13:49:21.303Z</time>
</trkpt>
<trkpt lat="31.7884400" lon="35.0465000">
<ele>548.830017</ele>
<time>2018-05-29T13:49:21.303Z</time>
</trkpt>
<trkpt lat="31.7884200" lon="35.0464300">
<ele>548.830017</ele>
<time>2018-05-29T13:49:21.303Z</time>
</trkpt>
<trkpt lat="31.7884400" lon="35.0462200">
<ele>548.679993</ele>
<time>2018-05-29T13:49:21.303Z</time>
</trkpt>
<trkpt lat="31.7885100" lon="35.0459800">
<ele>548.679993</ele>
<time>2018-05-29T13:49:21.303Z</time>
</trkpt>
<trkpt lat="31.7885800" lon="35.0458300">
<ele>548.539978</ele>
<time>2018-05-29T13:49:21.303Z</time>
</trkpt>
<trkpt lat="31.7890500" lon="35.0452400">
<ele>548.469971</ele>
<time>2018-05-29T13:49:21.303Z</time>
</trkpt>
<trkpt lat="31.7892300" lon="35.0449200">
<ele>548.469971</ele>
<time>2018-05-29T13:49:21.304Z</time>
</trkpt>
<trkpt lat="31.7893000" lon="35.0447200">
<ele>548.469971</ele>
<time>2018-05-29T13:49:21.304Z</time>
</trkpt>
<trkpt lat="31.7893800" lon="35.0443500">
<ele>548.200012</ele>
<time>2018-05-29T13:49:21.304Z</time>
</trkpt>
<trkpt lat="31.7894900" lon="35.0439500">
<ele>548.140015</ele>
<time>2018-05-29T13:49:21.304Z</time>
</trkpt>
<trkpt lat="31.7896300" lon="35.0435600">
<ele>548.000000</ele>
<time>2018-05-29T13:49:21.304Z</time>
</trkpt>
<trkpt lat="31.7895000" lon="35.0432500">
<ele>560.000000</ele>
<time>2018-05-29T13:49:21.304Z</time>
</trkpt>
<trkpt lat="31.7893800" lon="35.0431200">
<ele>559.239990</ele>
<time>2018-05-29T13:49:21.304Z</time>
</trkpt>
<trkpt lat="31.7889900" lon="35.0429000">
<ele>554.549988</ele>
<time>2018-05-29T13:49:21.304Z</time>
</trkpt>
<trkpt lat="31.7886400" lon="35.0427600">
<ele>552.649963</ele>
<time>2018-05-29T13:49:21.304Z</time>
</trkpt>
<trkpt lat="31.7884800" lon="35.0426700">
<ele>551.460022</ele>
<time>2018-05-29T13:49:21.304Z</time>
</trkpt>
<trkpt lat="31.7881200" lon="35.0423800">
<ele>546.059998</ele>
<time>2018-05-29T13:49:21.304Z</time>
</trkpt>
<trkpt lat="31.7879500" lon="35.0421600">
<ele>544.500000</ele>
<time>2018-05-29T13:49:21.304Z</time>
</trkpt>
<trkpt lat="31.7878800" lon="35.0420200">
<ele>543.710022</ele>
<time>2018-05-29T13:49:21.304Z</time>
</trkpt>
<trkpt lat="31.7878100" lon="35.0417700">
<ele>542.820007</ele>
<time>2018-05-29T13:49:21.304Z</time>
</trkpt>
<trkpt lat="31.7877600" lon="35.0410500">
<ele>539.859985</ele>
<time>2018-05-29T13:49:21.304Z</time>
</trkpt>
<trkpt lat="31.7876650" lon="35.0404900">
<ele>535.739990</ele>
<time>2018-05-29T13:49:21.304Z</time>
</trkpt>
<trkpt lat="31.7875700" lon="35.0399300">
<ele>529.200012</ele>
<time>2018-05-29T13:49:21.304Z</time>
</trkpt>
<trkpt lat="31.7875100" lon="35.0396800">
<ele>527.679993</ele>
<time>2018-05-29T13:49:21.304Z</time>
</trkpt>
<trkpt lat="31.7873900" lon="35.0393700">
<ele>525.209961</ele>
<time>2018-05-29T13:49:21.304Z</time>
</trkpt>
<trkpt lat="31.7872700" lon="35.0391600">
<ele>524.470032</ele>
<time>2018-05-29T13:49:21.304Z</time>
</trkpt>
<trkpt lat="31.7867200" lon="35.0384800">
<ele>519.420044</ele>
<time>2018-05-29T13:49:21.304Z</time>
</trkpt>
<trkpt lat="31.7865500" lon="35.0383300">
<ele>517.969971</ele>
<time>2018-05-29T13:49:21.304Z</time>
</trkpt>
<trkpt lat="31.7860500" lon="35.0379900">
<ele>514.510010</ele>
<time>2018-05-29T13:49:21.304Z</time>
</trkpt>
<trkpt lat="31.7854300" lon="35.0376300">
<ele>511.529999</ele>
<time>2018-05-29T13:49:21.304Z</time>
</trkpt>
<trkpt lat="31.7850900" lon="35.0374900">
<ele>508.729980</ele>
<time>2018-05-29T13:49:21.304Z</time>
</trkpt>
<trkpt lat="31.7848100" lon="35.0374200">
<ele>507.650024</ele>
<time>2018-05-29T13:49:21.304Z</time>
</trkpt>
<trkpt lat="31.7845900" lon="35.0374000">
<ele>506.869995</ele>
<time>2018-05-29T13:49:21.304Z</time>
</trkpt>
<trkpt lat="31.7838300" lon="35.0373900">
<ele>505.169983</ele>
<time>2018-05-29T13:49:21.304Z</time>
</trkpt>
<trkpt lat="31.7837300" lon="35.0373700">
<ele>505.169983</ele>
<time>2018-05-29T13:49:21.304Z</time>
</trkpt>
<trkpt lat="31.7836300" lon="35.0373300">
<ele>504.269989</ele>
<time>2018-05-29T13:49:21.304Z</time>
</trkpt>
<trkpt lat="31.7834300" lon="35.0372100">
<ele>502.800018</ele>
<time>2018-05-29T13:49:21.304Z</time>
</trkpt>
<trkpt lat="31.7829100" lon="35.0367600">
<ele>496.339996</ele>
<time>2018-05-29T13:49:21.304Z</time>
</trkpt>
<trkpt lat="31.7828500" lon="35.0366500">
<ele>495.610016</ele>
<time>2018-05-29T13:49:21.304Z</time>
</trkpt>
<trkpt lat="31.7828300" lon="35.0365700">
<ele>495.610016</ele>
<time>2018-05-29T13:49:21.304Z</time>
</trkpt>
<trkpt lat="31.7828800" lon="35.0363900">
<ele>495.000000</ele>
<time>2018-05-29T13:49:21.304Z</time>
</trkpt>
<trkpt lat="31.7829200" lon="35.0361400">
<ele>495.089996</ele>
<time>2018-05-29T13:49:21.304Z</time>
</trkpt>
<trkpt lat="31.7830400" lon="35.0357300">
<ele>495.040009</ele>
<time>2018-05-29T13:49:21.304Z</time>
</trkpt>
<trkpt lat="31.7831300" lon="35.0353100">
<ele>494.259979</ele>
<time>2018-05-29T13:49:21.304Z</time>
</trkpt>
<trkpt lat="31.7831300" lon="35.0350300">
<ele>494.259979</ele>
<time>2018-05-29T13:49:21.304Z</time>
</trkpt>
<trkpt lat="31.7830500" lon="35.0347700">
<ele>493.589996</ele>
<time>2018-05-29T13:49:21.304Z</time>
</trkpt>
<trkpt lat="31.7828800" lon="35.0343500">
<ele>491.040009</ele>
<time>2018-05-29T13:49:21.304Z</time>
</trkpt>
<trkpt lat="31.7826600" lon="35.0336200">
<ele>488.330017</ele>
<time>2018-05-29T13:49:21.304Z</time>
</trkpt>
<trkpt lat="31.7826000" lon="35.0334800">
<ele>488.019989</ele>
<time>2018-05-29T13:49:21.304Z</time>
</trkpt>
<trkpt lat="31.7825200" lon="35.0333500">
<ele>488.019989</ele>
<time>2018-05-29T13:49:21.304Z</time>
</trkpt>
<trkpt lat="31.7822900" lon="35.0331200">
<ele>487.549988</ele>
<time>2018-05-29T13:49:21.304Z</time>
</trkpt>
<trkpt lat="31.7816300" lon="35.0326000">
<ele>485.699982</ele>
<time>2018-05-29T13:49:21.304Z</time>
</trkpt>
<trkpt lat="31.7815500" lon="35.0325200">
<ele>485.479980</ele>
<time>2018-05-29T13:49:21.304Z</time>
</trkpt>
<trkpt lat="31.7815000" lon="35.0324400">
<ele>485.330017</ele>
<time>2018-05-29T13:49:21.304Z</time>
</trkpt>
<trkpt lat="31.7814600" lon="35.0323400">
<ele>484.980011</ele>
<time>2018-05-29T13:49:21.304Z</time>
</trkpt>
<trkpt lat="31.7814400" lon="35.0322000">
<ele>484.820007</ele>
<time>2018-05-29T13:49:21.304Z</time>
</trkpt>
<trkpt lat="31.7813600" lon="35.0312700">
<ele>483.559998</ele>
<time>2018-05-29T13:49:21.304Z</time>
</trkpt>
<trkpt lat="31.7813700" lon="35.0311800">
<ele>483.559998</ele>
<time>2018-05-29T13:49:21.304Z</time>
</trkpt>
<trkpt lat="31.7814000" lon="35.0311100">
<ele>482.959991</ele>
<time>2018-05-29T13:49:21.304Z</time>
</trkpt>
<trkpt lat="31.7814600" lon="35.0310400">
<ele>482.750000</ele>
<time>2018-05-29T13:49:21.304Z</time>
</trkpt>
<trkpt lat="31.7815100" lon="35.0310200">
<ele>482.619995</ele>
<time>2018-05-29T13:49:21.304Z</time>
</trkpt>
<trkpt lat="31.7815800" lon="35.0310100">
<ele>482.600006</ele>
<time>2018-05-29T13:49:21.304Z</time>
</trkpt>
<trkpt lat="31.7818600" lon="35.0310600">
<ele>483.519989</ele>
<time>2018-05-29T13:49:21.304Z</time>
</trkpt>
<trkpt lat="31.7821100" lon="35.0310600">
<ele>484.889984</ele>
<time>2018-05-29T13:49:21.304Z</time>
</trkpt>
<trkpt lat="31.7823400" lon="35.0310300">
<ele>485.900024</ele>
<time>2018-05-29T13:49:21.304Z</time>
</trkpt>
<trkpt lat="31.7825400" lon="35.0309500">
<ele>486.059998</ele>
<time>2018-05-29T13:49:21.304Z</time>
</trkpt>
<trkpt lat="31.7827100" lon="35.0307800">
<ele>486.089996</ele>
<time>2018-05-29T13:49:21.304Z</time>
</trkpt>
<trkpt lat="31.7827800" lon="35.0306200">
<ele>486.010010</ele>
<time>2018-05-29T13:49:21.304Z</time>
</trkpt>
<trkpt lat="31.7828500" lon="35.0302300">
<ele>485.489990</ele>
<time>2018-05-29T13:49:21.304Z</time>
</trkpt>
<trkpt lat="31.7828100" lon="35.0298800">
<ele>485.330017</ele>
<time>2018-05-29T13:49:21.304Z</time>
</trkpt>
<trkpt lat="31.7826600" lon="35.0290500">
<ele>483.849976</ele>
<time>2018-05-29T13:49:21.304Z</time>
</trkpt>
<trkpt lat="31.7826800" lon="35.0288800">
<ele>483.320007</ele>
<time>2018-05-29T13:49:21.304Z</time>
</trkpt>
<trkpt lat="31.7827500" lon="35.0287700">
<ele>482.760010</ele>
<time>2018-05-29T13:49:21.304Z</time>
</trkpt>
<trkpt lat="31.7831900" lon="35.0282700">
<ele>483.440002</ele>
<time>2018-05-29T13:49:21.304Z</time>
</trkpt>
<trkpt lat="31.7832300" lon="35.0282300">
<ele>484.630005</ele>
<time>2018-05-29T13:49:21.304Z</time>
</trkpt>
<trkpt lat="31.7833200" lon="35.0281900">
<ele>485.219971</ele>
<time>2018-05-29T13:49:21.304Z</time>
</trkpt>
<trkpt lat="31.7833900" lon="35.0281900">
<ele>485.219971</ele>
<time>2018-05-29T13:49:21.305Z</time>
</trkpt>
<trkpt lat="31.7835500" lon="35.0282800">
<ele>486.729980</ele>
<time>2018-05-29T13:49:21.305Z</time>
</trkpt>
<trkpt lat="31.7838500" lon="35.0284900">
<ele>488.340027</ele>
<time>2018-05-29T13:49:21.305Z</time>
</trkpt>
<trkpt lat="31.7841400" lon="35.0285500">
<ele>485.929993</ele>
<time>2018-05-29T13:49:21.305Z</time>
</trkpt>
<trkpt lat="31.7842200" lon="35.0285900">
<ele>485.200012</ele>
<time>2018-05-29T13:49:21.305Z</time>
</trkpt>
<trkpt lat="31.7843200" lon="35.0286700">
<ele>485.200012</ele>
<time>2018-05-29T13:49:21.305Z</time>
</trkpt>
<trkpt lat="31.7846400" lon="35.0290400">
<ele>482.040009</ele>
<time>2018-05-29T13:49:21.305Z</time>
</trkpt>
<trkpt lat="31.7847800" lon="35.0291300">
<ele>481.459991</ele>
<time>2018-05-29T13:49:21.305Z</time>
</trkpt>
<trkpt lat="31.7848500" lon="35.0291400">
<ele>480.190002</ele>
<time>2018-05-29T13:49:21.305Z</time>
</trkpt>
<trkpt lat="31.7850100" lon="35.0291200">
<ele>479.559998</ele>
<time>2018-05-29T13:49:21.305Z</time>
</trkpt>
<trkpt lat="31.7851700" lon="35.0290500">
<ele>477.760010</ele>
<time>2018-05-29T13:49:21.305Z</time>
</trkpt>
<trkpt lat="31.7856200" lon="35.0288100">
<ele>475.750000</ele>
<time>2018-05-29T13:49:21.305Z</time>
</trkpt>
<trkpt lat="31.7857500" lon="35.0287600">
<ele>472.729980</ele>
<time>2018-05-29T13:49:21.305Z</time>
</trkpt>
<trkpt lat="31.7865100" lon="35.0287700">
<ele>466.899994</ele>
<time>2018-05-29T13:49:21.305Z</time>
</trkpt>
<trkpt lat="31.7866500" lon="35.0288300">
<ele>464.989990</ele>
<time>2018-05-29T13:49:21.305Z</time>
</trkpt>
<trkpt lat="31.7873900" lon="35.0293500">
<ele>459.730011</ele>
<time>2018-05-29T13:49:21.305Z</time>
</trkpt>
<trkpt lat="31.7880000" lon="35.0297000">
<ele>455.129974</ele>
<time>2018-05-29T13:49:21.305Z</time>
</trkpt>
<trkpt lat="31.7883900" lon="35.0300300">
<ele>451.780029</ele>
<time>2018-05-29T13:49:21.305Z</time>
</trkpt>
<trkpt lat="31.7885800" lon="35.0302500">
<ele>450.620026</ele>
<time>2018-05-29T13:49:21.305Z</time>
</trkpt>
<trkpt lat="31.7887800" lon="35.0305400">
<ele>449.309998</ele>
<time>2018-05-29T13:49:21.305Z</time>
</trkpt>
<trkpt lat="31.7888200" lon="35.0305700">
<ele>448.860016</ele>
<time>2018-05-29T13:49:21.305Z</time>
</trkpt>
<trkpt lat="31.7889100" lon="35.0305600">
<ele>447.979980</ele>
<time>2018-05-29T13:49:21.305Z</time>
</trkpt>
<trkpt lat="31.7889600" lon="35.0305000">
<ele>447.490021</ele>
<time>2018-05-29T13:49:21.305Z</time>
</trkpt>
<trkpt lat="31.7890000" lon="35.0303700">
<ele>447.059998</ele>
<time>2018-05-29T13:49:21.305Z</time>
</trkpt>
<trkpt lat="31.7890200" lon="35.0299700">
<ele>446.000000</ele>
<time>2018-05-29T13:49:21.305Z</time>
</trkpt>
<trkpt lat="31.7888900" lon="35.0294700">
<ele>445.630005</ele>
<time>2018-05-29T13:49:21.305Z</time>
</trkpt>
<trkpt lat="31.7885600" lon="35.0286700">
<ele>443.350006</ele>
<time>2018-05-29T13:49:21.305Z</time>
</trkpt>
<trkpt lat="31.7881450" lon="35.0281200">
<ele>441.910004</ele>
<time>2018-05-29T13:49:21.305Z</time>
</trkpt>
<trkpt lat="31.7877300" lon="35.0275700">
<ele>440.199982</ele>
<time>2018-05-29T13:49:21.305Z</time>
</trkpt>
<trkpt lat="31.7870800" lon="35.0269800">
<ele>436.429993</ele>
<time>2018-05-29T13:49:21.305Z</time>
</trkpt>
<trkpt lat="31.7868900" lon="35.0268300">
<ele>434.769989</ele>
<time>2018-05-29T13:49:21.305Z</time>
</trkpt>
<trkpt lat="31.7866500" lon="35.0265800">
<ele>432.970001</ele>
<time>2018-05-29T13:49:21.305Z</time>
</trkpt>
<trkpt lat="31.7859500" lon="35.0260100">
<ele>426.180023</ele>
<time>2018-05-29T13:49:21.305Z</time>
</trkpt>
<trkpt lat="31.7858100" lon="35.0258600">
<ele>425.649994</ele>
<time>2018-05-29T13:49:21.305Z</time>
</trkpt>
<trkpt lat="31.7857400" lon="35.0257200">
<ele>424.770020</ele>
<time>2018-05-29T13:49:21.305Z</time>
</trkpt>
<trkpt lat="31.7856000" lon="35.0252300">
<ele>422.719971</ele>
<time>2018-05-29T13:49:21.305Z</time>
</trkpt>
<trkpt lat="31.7854200" lon="35.0242600">
<ele>419.700012</ele>
<time>2018-05-29T13:49:21.305Z</time>
</trkpt>
<trkpt lat="31.7853500" lon="35.0239900">
<ele>419.209991</ele>
<time>2018-05-29T13:49:21.305Z</time>
</trkpt>
<trkpt lat="31.7852700" lon="35.0238000">
<ele>418.950012</ele>
<time>2018-05-29T13:49:21.305Z</time>
</trkpt>
<trkpt lat="31.7851700" lon="35.0236200">
<ele>418.520020</ele>
<time>2018-05-29T13:49:21.305Z</time>
</trkpt>
<trkpt lat="31.7850500" lon="35.0234700">
<ele>417.419983</ele>
<time>2018-05-29T13:49:21.305Z</time>
</trkpt>
<trkpt lat="31.7844000" lon="35.0228200">
<ele>416.299988</ele>
<time>2018-05-29T13:49:21.305Z</time>
</trkpt>
<trkpt lat="31.7842500" lon="35.0226200">
<ele>416.129974</ele>
<time>2018-05-29T13:49:21.305Z</time>
</trkpt>
<trkpt lat="31.7842300" lon="35.0225400">
<ele>415.459991</ele>
<time>2018-05-29T13:49:21.305Z</time>
</trkpt>
<trkpt lat="31.7842400" lon="35.0224400">
<ele>415.459991</ele>
<time>2018-05-29T13:49:21.305Z</time>
</trkpt>
<trkpt lat="31.7843400" lon="35.0223000">
<ele>414.410004</ele>
<time>2018-05-29T13:49:21.305Z</time>
</trkpt>
<trkpt lat="31.7845900" lon="35.0220200">
<ele>413.770020</ele>
<time>2018-05-29T13:49:21.305Z</time>
</trkpt>
<trkpt lat="31.7847400" lon="35.0219100">
<ele>413.589996</ele>
<time>2018-05-29T13:49:21.305Z</time>
</trkpt>
<trkpt lat="31.7853000" lon="35.0216900">
<ele>413.149994</ele>
<time>2018-05-29T13:49:21.305Z</time>
</trkpt>
<trkpt lat="31.7857400" lon="35.0214600">
<ele>412.910004</ele>
<time>2018-05-29T13:49:21.305Z</time>
</trkpt>
<trkpt lat="31.7860400" lon="35.0212000">
<ele>412.820007</ele>
<time>2018-05-29T13:49:21.305Z</time>
</trkpt>
<trkpt lat="31.7862200" lon="35.0210100">
<ele>412.640015</ele>
<time>2018-05-29T13:49:21.305Z</time>
</trkpt>
<trkpt lat="31.7864300" lon="35.0207100">
<ele>411.880005</ele>
<time>2018-05-29T13:49:21.305Z</time>
</trkpt>
<trkpt lat="31.7865800" lon="35.0205400">
<ele>411.000000</ele>
<time>2018-05-29T13:49:21.305Z</time>
</trkpt>
<trkpt lat="31.7867200" lon="35.0204200">
<ele>410.200012</ele>
<time>2018-05-29T13:49:21.305Z</time>
</trkpt>
<trkpt lat="31.7868500" lon="35.0203500">
<ele>409.000000</ele>
<time>2018-05-29T13:49:21.305Z</time>
</trkpt>
<trkpt lat="31.7869800" lon="35.0203100">
<ele>408.580017</ele>
<time>2018-05-29T13:49:21.305Z</time>
</trkpt>
<trkpt lat="31.7870500" lon="35.0203100">
<ele>408.580017</ele>
<time>2018-05-29T13:49:21.305Z</time>
</trkpt>
<trkpt lat="31.7871400" lon="35.0203600">
<ele>408.580017</ele>
<time>2018-05-29T13:49:21.305Z</time>
</trkpt>
<trkpt lat="31.7872600" lon="35.0204600">
<ele>406.239990</ele>
<time>2018-05-29T13:49:21.305Z</time>
</trkpt>
<trkpt lat="31.7874000" lon="35.0206200">
<ele>406.239990</ele>
<time>2018-05-29T13:49:21.305Z</time>
</trkpt>
<trkpt lat="31.7875100" lon="35.0207100">
<ele>405.399994</ele>
<time>2018-05-29T13:49:21.305Z</time>
</trkpt>
<trkpt lat="31.7876600" lon="35.0208000">
<ele>405.049988</ele>
<time>2018-05-29T13:49:21.305Z</time>
</trkpt>
<trkpt lat="31.7878700" lon="35.0208800">
<ele>404.369995</ele>
<time>2018-05-29T13:49:21.305Z</time>
</trkpt>
<trkpt lat="31.7880800" lon="35.0209300">
<ele>403.450012</ele>
<time>2018-05-29T13:49:21.306Z</time>
</trkpt>
<trkpt lat="31.7883000" lon="35.0209400">
<ele>403.130005</ele>
<time>2018-05-29T13:49:21.306Z</time>
</trkpt>
<trkpt lat="31.7883900" lon="35.0209100">
<ele>403.079987</ele>
<time>2018-05-29T13:49:21.306Z</time>
</trkpt>
<trkpt lat="31.7885600" lon="35.0207600">
<ele>403.020020</ele>
<time>2018-05-29T13:49:21.306Z</time>
</trkpt>
<trkpt lat="31.7886500" lon="35.0205300">
<ele>402.750000</ele>
<time>2018-05-29T13:49:21.306Z</time>
</trkpt>
<trkpt lat="31.7887400" lon="35.0200600">
<ele>401.610016</ele>
<time>2018-05-29T13:49:21.306Z</time>
</trkpt>
<trkpt lat="31.7888300" lon="35.0198100">
<ele>400.729980</ele>
<time>2018-05-29T13:49:21.306Z</time>
</trkpt>
<trkpt lat="31.7889100" lon="35.0196900">
<ele>399.170013</ele>
<time>2018-05-29T13:49:21.306Z</time>
</trkpt>
<trkpt lat="31.7891000" lon="35.0195600">
<ele>398.589996</ele>
<time>2018-05-29T13:49:21.306Z</time>
</trkpt>
<trkpt lat="31.7896400" lon="35.0193550">
<ele>396.019989</ele>
<time>2018-05-29T13:49:21.306Z</time>
</trkpt>
<trkpt lat="31.7901800" lon="35.0191500">
<ele>393.619995</ele>
<time>2018-05-29T13:49:21.306Z</time>
</trkpt>
<trkpt lat="31.7903200" lon="35.0191300">
<ele>392.109985</ele>
<time>2018-05-29T13:49:21.306Z</time>
</trkpt>
<trkpt lat="31.7905300" lon="35.0191500">
<ele>391.559998</ele>
<time>2018-05-29T13:49:21.306Z</time>
</trkpt>
<trkpt lat="31.7909300" lon="35.0192900">
<ele>388.309998</ele>
<time>2018-05-29T13:49:21.306Z</time>
</trkpt>
<trkpt lat="31.7912500" lon="35.0193400">
<ele>387.000000</ele>
<time>2018-05-29T13:49:21.306Z</time>
</trkpt>
<trkpt lat="31.7917150" lon="35.0193400">
<ele>381.230011</ele>
<time>2018-05-29T13:49:21.306Z</time>
</trkpt>
<trkpt lat="31.7921800" lon="35.0193400">
<ele>377.389984</ele>
<time>2018-05-29T13:49:21.306Z</time>
</trkpt>
<trkpt lat="31.7923200" lon="35.0192900">
<ele>375.360016</ele>
<time>2018-05-29T13:49:21.306Z</time>
</trkpt>
<trkpt lat="31.7925500" lon="35.0191400">
<ele>371.989990</ele>
<time>2018-05-29T13:49:21.306Z</time>
</trkpt>
<trkpt lat="31.7926200" lon="35.0190100">
<ele>370.079987</ele>
<time>2018-05-29T13:49:21.306Z</time>
</trkpt>
<trkpt lat="31.7926100" lon="35.0189400">
<ele>348.209991</ele>
<time>2018-05-29T13:49:21.306Z</time>
</trkpt>
<trkpt lat="31.7926500" lon="35.0188900">
<ele>348.209991</ele>
<time>2018-05-29T13:49:21.306Z</time>
</trkpt>
<trkpt lat="31.7926300" lon="35.0187700">
<ele>348.209991</ele>
<time>2018-05-29T13:49:21.306Z</time>
</trkpt>
<trkpt lat="31.7924900" lon="35.0184900">
<ele>348.209991</ele>
<time>2018-05-29T13:49:21.306Z</time>
</trkpt>
<trkpt lat="31.7922000" lon="35.0176600">
<ele>341.000000</ele>
<time>2018-05-29T13:49:21.306Z</time>
</trkpt>
<trkpt lat="31.7921700" lon="35.0175200">
<ele>341.000000</ele>
<time>2018-05-29T13:49:21.306Z</time>
</trkpt>
<trkpt lat="31.7921200" lon="35.0168500">
<ele>341.000000</ele>
<time>2018-05-29T13:49:21.306Z</time>
</trkpt>
<trkpt lat="31.7921300" lon="35.0164200">
<ele>341.000000</ele>
<time>2018-05-29T13:49:21.306Z</time>
</trkpt>
<trkpt lat="31.7921900" lon="35.0161100">
<ele>340.929993</ele>
<time>2018-05-29T13:49:21.306Z</time>
</trkpt>
<trkpt lat="31.7922400" lon="35.0159600">
<ele>340.850006</ele>
<time>2018-05-29T13:49:21.306Z</time>
</trkpt>
<trkpt lat="31.7923700" lon="35.0157500">
<ele>340.679993</ele>
<time>2018-05-29T13:49:21.306Z</time>
</trkpt>
<trkpt lat="31.7924600" lon="35.0156900">
<ele>340.220001</ele>
<time>2018-05-29T13:49:21.306Z</time>
</trkpt>
<trkpt lat="31.7926400" lon="35.0156200">
<ele>340.070007</ele>
<time>2018-05-29T13:49:21.306Z</time>
</trkpt>
<trkpt lat="31.7927900" lon="35.0154800">
<ele>340.000000</ele>
<time>2018-05-29T13:49:21.306Z</time>
</trkpt>
<trkpt lat="31.7927100" lon="35.0153800">
<ele>336.250000</ele>
<time>2018-05-29T13:49:21.306Z</time>
</trkpt>
<trkpt lat="31.7923800" lon="35.0151700">
<ele>336.250000</ele>
<time>2018-05-29T13:49:21.306Z</time>
</trkpt>
<trkpt lat="31.7920300" lon="35.0148900">
<ele>320.970001</ele>
<time>2018-05-29T13:49:21.306Z</time>
</trkpt>
<trkpt lat="31.7917900" lon="35.0148300">
<ele>320.970001</ele>
<time>2018-05-29T13:49:21.306Z</time>
</trkpt>
<trkpt lat="31.7915700" lon="35.0147400">
<ele>317.879974</ele>
<time>2018-05-29T13:49:21.306Z</time>
</trkpt>
<trkpt lat="31.7914500" lon="35.0147500">
<ele>315.709991</ele>
<time>2018-05-29T13:49:21.306Z</time>
</trkpt>
<trkpt lat="31.7913000" lon="35.0147200">
<ele>312.990021</ele>
<time>2018-05-29T13:49:21.306Z</time>
</trkpt>
<trkpt lat="31.7911200" lon="35.0145400">
<ele>311.100006</ele>
<time>2018-05-29T13:49:21.306Z</time>
</trkpt>
<trkpt lat="31.7910100" lon="35.0145000">
<ele>308.890015</ele>
<time>2018-05-29T13:49:21.306Z</time>
</trkpt>
<trkpt lat="31.7904800" lon="35.0143800">
<ele>306.510010</ele>
<time>2018-05-29T13:49:21.306Z</time>
</trkpt>
<trkpt lat="31.7902600" lon="35.0144100">
<ele>306.510010</ele>
<time>2018-05-29T13:49:21.306Z</time>
</trkpt>
<trkpt lat="31.7899800" lon="35.0144000">
<ele>306.470001</ele>
<time>2018-05-29T13:49:21.306Z</time>
</trkpt>
<trkpt lat="31.7899200" lon="35.0144000">
<ele>306.459991</ele>
<time>2018-05-29T13:49:21.306Z</time>
</trkpt>
<trkpt lat="31.7896100" lon="35.0142700">
<ele>306.250000</ele>
<time>2018-05-29T13:49:21.306Z</time>
</trkpt>
<trkpt lat="31.7893700" lon="35.0142000">
<ele>305.660004</ele>
<time>2018-05-29T13:49:21.306Z</time>
</trkpt>
<trkpt lat="31.7891300" lon="35.0141900">
<ele>304.260010</ele>
<time>2018-05-29T13:49:21.306Z</time>
</trkpt>
<trkpt lat="31.7887500" lon="35.0141100">
<ele>301.000000</ele>
<time>2018-05-29T13:49:21.306Z</time>
</trkpt>
<trkpt lat="31.7881500" lon="35.0141100">
<ele>302.799988</ele>
<time>2018-05-29T13:49:21.306Z</time>
</trkpt>
<trkpt lat="31.7875500" lon="35.0141100">
<ele>302.889984</ele>
<time>2018-05-29T13:49:21.306Z</time>
</trkpt>
<trkpt lat="31.7869500" lon="35.0141100">
<ele>301.259979</ele>
<time>2018-05-29T13:49:21.306Z</time>
</trkpt>
<trkpt lat="31.7861900" lon="35.0142800">
<ele>297.000000</ele>
<time>2018-05-29T13:49:21.306Z</time>
</trkpt>
<trkpt lat="31.7857150" lon="35.0143350">
<ele>293.260010</ele>
<time>2018-05-29T13:49:21.306Z</time>
</trkpt>
<trkpt lat="31.7852400" lon="35.0143900">
<ele>292.170013</ele>
<time>2018-05-29T13:49:21.306Z</time>
</trkpt>
<trkpt lat="31.7844200" lon="35.0145500">
<ele>289.800018</ele>
<time>2018-05-29T13:49:21.306Z</time>
</trkpt>
<trkpt lat="31.7842700" lon="35.0145900">
<ele>288.520020</ele>
<time>2018-05-29T13:49:21.306Z</time>
</trkpt>
<trkpt lat="31.7833900" lon="35.0146700">
<ele>281.040009</ele>
<time>2018-05-29T13:49:21.306Z</time>
</trkpt>
<trkpt lat="31.7830400" lon="35.0146700">
<ele>280.609985</ele>
<time>2018-05-29T13:49:21.306Z</time>
</trkpt>
<trkpt lat="31.7822600" lon="35.0145500">
<ele>276.970001</ele>
<time>2018-05-29T13:49:21.306Z</time>
</trkpt>
<trkpt lat="31.7816600" lon="35.0146000">
<ele>274.390015</ele>
<time>2018-05-29T13:49:21.306Z</time>
</trkpt>
<trkpt lat="31.7810600" lon="35.0146500">
<ele>272.250000</ele>
<time>2018-05-29T13:49:21.306Z</time>
</trkpt>
<trkpt lat="31.7804400" lon="35.0144900">
<ele>270.559998</ele>
<time>2018-05-29T13:49:21.306Z</time>
</trkpt>
<trkpt lat="31.7796800" lon="35.0141400">
<ele>266.000000</ele>
<time>2018-05-29T13:49:21.306Z</time>
</trkpt>
<trkpt lat="31.7796400" lon="35.0143000">
<ele>266.160004</ele>
<time>2018-05-29T13:49:21.306Z</time>
</trkpt>
<trkpt lat="31.7795200" lon="35.0144600">
<ele>266.260010</ele>
<time>2018-05-29T13:49:21.307Z</time>
</trkpt>
<trkpt lat="31.7794200" lon="35.0147300">
<ele>266.609985</ele>
<time>2018-05-29T13:49:21.307Z</time>
</trkpt>
<trkpt lat="31.7792700" lon="35.0156000">
<ele>268.000000</ele>
<time>2018-05-29T13:49:21.307Z</time>
</trkpt>
<trkpt lat="31.7791500" lon="35.0161000">
<ele>265.000000</ele>
<time>2018-05-29T13:49:21.307Z</time>
</trkpt>
<trkpt lat="31.7790200" lon="35.0161900">
<ele>268.420013</ele>
<time>2018-05-29T13:49:21.307Z</time>
</trkpt>
<trkpt lat="31.7788000" lon="35.0162200">
<ele>268.420013</ele>
<time>2018-05-29T13:49:21.307Z</time>
</trkpt>
<trkpt lat="31.7786500" lon="35.0162100">
<ele>270.549988</ele>
<time>2018-05-29T13:49:21.307Z</time>
</trkpt>
<trkpt lat="31.7784400" lon="35.0161100">
<ele>272.729980</ele>
<time>2018-05-29T13:49:21.307Z</time>
</trkpt>
<trkpt lat="31.7782500" lon="35.0159700">
<ele>274.000000</ele>
<time>2018-05-29T13:49:21.307Z</time>
</trkpt>
<trkpt lat="31.7781700" lon="35.0159400">
<ele>274.000000</ele>
<time>2018-05-29T13:49:21.307Z</time>
</trkpt>
<trkpt lat="31.7780100" lon="35.0159400">
<ele>274.000000</ele>
<time>2018-05-29T13:49:21.307Z</time>
</trkpt>
<trkpt lat="31.7776800" lon="35.0160700">
<ele>274.000000</ele>
<time>2018-05-29T13:49:21.307Z</time>
</trkpt>
</trkseg>
</trk>
</gpx>
